Observation data for Snyder SSW on 11/14/2019      Previous  Date  Next       Current Mesonet Observations  Soil Data  Daily Summary Page  Observations in Plain Language
KWT1 140600Z 19007KT 02/01 A3007 RMK A01 T00190005  RH  090%=      5-min Rain = 0
KWT1 140601Z 19007KT 02/01 A3007 RMK A01 T00190005  RH  091%=      5-min Rain = 0
KWT1 140602Z 19007KT 02/01 A3007 RMK A01 T00190006  RH  091%=      5-min Rain = 0
KWT1 140603Z 19007KT 02/01 A3007 RMK A01 T00180005  RH  091%=      5-min Rain = 0
KWT1 140604Z 19007KT 02/01 A3007 RMK A01 T00180005  RH  091%=      5-min Rain = 0
KWT1 140605Z 19007KT 02/01 A3007 RMK A01 T00180005  RH  092%=      5-min Rain = 0
KWT1 140606Z 19007KT 02/01 A3007 RMK A01 T00170005  RH  092%=      5-min Rain = 0
KWT1 140607Z 19007KT 02/01 A3007 RMK A01 T00170005  RH  092%=      5-min Rain = 0
KWT1 140608Z 19007KT 02/01 A3007 RMK A01 T00170005  RH  092%=      5-min Rain = 0
KWT1 140609Z 20007KT 02/01 A3007 RMK A01 T00160005  RH  092%=      5-min Rain = 0
KWT1 140610Z 20007KT 02/01 A3007 RMK A01 T00160005  RH  092%=      5-min Rain = 0
KWT1 140611Z 20007KT 02/01 A3007 RMK A01 T00160005  RH  092%=      5-min Rain = 0
KWT1 140612Z 20007KT 02/01 A3007 RMK A01 T00160005  RH  093%=      5-min Rain = 0
KWT1 140613Z 20006KT 02/01 A3007 RMK A01 T00160006  RH  093%=      5-min Rain = 0
KWT1 140614Z 20006KT 02/01 A3007 RMK A01 T00170006  RH  093%=      5-min Rain = 0
KWT1 140615Z 20006KT 02/01 A3007 RMK A01 T00170007  RH  093%=      5-min Rain = 0
KWT1 140616Z 20006KT 02/01 A3007 RMK A01 T00170006  RH  093%=      5-min Rain = 0
KWT1 140617Z 20006KT 02/01 A3007 RMK A01 T00170006  RH  093%=      5-min Rain = 0
KWT1 140618Z 20006KT 02/01 A3007 RMK A01 T00170006  RH  093%=      5-min Rain = 0
KWT1 140619Z 20006KT 02/01 A3007 RMK A01 T00170006  RH  093%=      5-min Rain = 0
KWT1 140620Z 20006KT 02/01 A3007 RMK A01 T00160006  RH  093%=      5-min Rain = 0
KWT1 140621Z 20006KT 02/01 A3007 RMK A01 T00160006  RH  093%=      5-min Rain = 0
KWT1 140622Z 20006KT 02/01 A3007 RMK A01 T00160006  RH  093%=      5-min Rain = 0
KWT1 140623Z 20006KT 02/01 A3007 RMK A01 T00160006  RH  093%=      5-min Rain = 0
KWT1 140624Z 20006KT 02/01 A3007 RMK A01 T00160005  RH  093%=      5-min Rain = 0
KWT1 140625Z 21006KT 02/01 A3007 RMK A01 T00160005  RH  093%=      5-min Rain = 0
KWT1 140626Z 21006KT 02/01 A3007 RMK A01 T00160006  RH  093%=      5-min Rain = 0
KWT1 140627Z 21006KT 02/01 A3007 RMK A01 T00160006  RH  093%=      5-min Rain = 0
KWT1 140628Z 21006KT 02/01 A3007 RMK A01 T00150006  RH  093%=      5-min Rain = 0
KWT1 140629Z 22006KT 02/01 A3008 RMK A01 T00160007  RH  093%=      5-min Rain = 0
KWT1 140630Z 22005KT 02/01 A3008 RMK A01 T00170008  RH  094%=      5-min Rain = 0
KWT1 140631Z 22006KT 02/01 A3008 RMK A01 T00180009  RH  094%=      5-min Rain = 0
KWT1 140632Z 22005KT 02/01 A3008 RMK A01 T00180009  RH  093%=      5-min Rain = 0
KWT1 140633Z 22005KT 02/01 A3008 RMK A01 T00180008  RH  093%=      5-min Rain = 0
KWT1 140634Z 21005KT 02/01 A3008 RMK A01 T00180008  RH  093%=      5-min Rain = 0
KWT1 140635Z 21005KT 02/01 A3008 RMK A01 T00190008  RH  093%=      5-min Rain = 0
KWT1 140636Z 21005KT 02/01 A3008 RMK A01 T00180008  RH  093%=      5-min Rain = 0
KWT1 140637Z 21005KT 02/01 A3008 RMK A01 T00180008  RH  093%=      5-min Rain = 0
KWT1 140638Z 21006KT 02/01 A3008 RMK A01 T00180008  RH  093%=      5-min Rain = 0
KWT1 140639Z 20006KT 02/01 A3008 RMK A01 T00180008  RH  093%=      5-min Rain = 0
KWT1 140640Z 20007KT 02/01 A3008 RMK A01 T00180007  RH  093%=      5-min Rain = 0
KWT1 140641Z 20007KT 02/01 A3008 RMK A01 T00180008  RH  093%=      5-min Rain = 0
KWT1 140642Z 21007KT 02/01 A3008 RMK A01 T00180008  RH  093%=      5-min Rain = 0
KWT1 140643Z 21007KT 02/01 A3008 RMK A01 T00190008  RH  093%=      5-min Rain = 0
KWT1 140644Z 21006KT 02/01 A3008 RMK A01 T00180008  RH  093%=      5-min Rain = 0
KWT1 140645Z 21006KT 02/01 A3008 RMK A01 T00190009  RH  093%=      5-min Rain = 0
KWT1 140646Z 20006KT 02/01 A3008 RMK A01 T00190009  RH  093%=      5-min Rain = 0
KWT1 140647Z 20006KT 02/01 A3008 RMK A01 T00190009  RH  093%=      5-min Rain = 0
KWT1 140648Z 21006KT 02/01 A3008 RMK A01 T00190009  RH  093%=      5-min Rain = 0
KWT1 140649Z 21006KT 02/01 A3008 RMK A01 T00190008  RH  093%=      5-min Rain = 0
KWT1 140650Z 21006KT 02/01 A3008 RMK A01 T00190008  RH  093%=      5-min Rain = 0
KWT1 140651Z 21005KT 02/01 A3008 RMK A01 T00200009  RH  093%=      5-min Rain = 0
KWT1 140652Z 22005KT 02/01 A3009 RMK A01 T00200009  RH  093%=      5-min Rain = 0
KWT1 140653Z 21005KT 02/01 A3009 RMK A01 T00200009  RH  093%=      5-min Rain = 0
KWT1 140654Z 21005KT 02/01 A3009 RMK A01 T00200009  RH  093%=      5-min Rain = 0
KWT1 140655Z 21005KT 02/01 A3009 RMK A01 T00200010  RH  093%=      5-min Rain = 0
KWT1 140656Z 22004KT 02/01 A3009 RMK A01 T00200009  RH  092%=      5-min Rain = 0
KWT1 140657Z 22004KT 02/01 A3009 RMK A01 T00200009  RH  093%=      5-min Rain = 0
KWT1 140658Z 22004KT 02/01 A3009 RMK A01 T00200009  RH  093%=      5-min Rain = 0
KWT1 140659Z 22004KT 02/01 A3009 RMK A01 T00200009  RH  092%=      5-min Rain = 0
KWT1 140700Z 22004KT 02/01 A3009 RMK A01 T00200009  RH  092%=      5-min Rain = 0
KWT1 140701Z 22004KT 02/01 A3009 RMK A01 T00200009  RH  093%=      5-min Rain = 0
KWT1 140702Z 22004KT 02/01 A3009 RMK A01 T00190008  RH  092%=      5-min Rain = 0
KWT1 140703Z 22004KT 02/01 A3009 RMK A01 T00180006  RH  092%=      5-min Rain = 0
KWT1 140704Z 22004KT 02/01 A3009 RMK A01 T00170005  RH  092%=      5-min Rain = 0
KWT1 140705Z 23004KT 02/01 A3009 RMK A01 T00160005  RH  092%=      5-min Rain = 0
KWT1 140706Z 23004KT 02/00 A3009 RMK A01 T00150004  RH  092%=      5-min Rain = 0
KWT1 140707Z 23004KT 02/00 A3009 RMK A01 T00150004  RH  093%=      5-min Rain = 0
KWT1 140708Z 22004KT 02/01 A3009 RMK A01 T00150005  RH  093%=      5-min Rain = 0
KWT1 140709Z 22004KT 02/01 A3009 RMK A01 T00150005  RH  093%=      5-min Rain = 0
KWT1 140710Z 22004KT 02/01 A3009 RMK A01 T00150005  RH  093%=      5-min Rain = 0
KWT1 140711Z 22004KT 02/01 A3009 RMK A01 T00150006  RH  094%=      5-min Rain = 0
KWT1 140712Z 22004KT 02/01 A3009 RMK A01 T00150006  RH  094%=      5-min Rain = 0
KWT1 140713Z 22004KT 02/01 A3009 RMK A01 T00150006  RH  094%=      5-min Rain = 0
KWT1 140714Z 22005KT 02/01 A3009 RMK A01 T00150006  RH  094%=      5-min Rain = 0
KWT1 140715Z 22005KT 02/01 A3009 RMK A01 T00150006  RH  094%=      5-min Rain = 0
KWT1 140716Z 22005KT 02/01 A3009 RMK A01 T00160007  RH  094%=      5-min Rain = 0
KWT1 140717Z 23004KT 02/01 A3009 RMK A01 T00160007  RH  094%=      5-min Rain = 0
KWT1 140718Z 23004KT 02/01 A3009 RMK A01 T00160007  RH  094%=      5-min Rain = 0
KWT1 140719Z 23005KT 02/01 A3009 RMK A01 T00150006  RH  094%=      5-min Rain = 0
KWT1 140720Z 24005KT 02/01 A3009 RMK A01 T00150006  RH  094%=      5-min Rain = 0
KWT1 140721Z 24005KT 01/01 A3009 RMK A01 T00140005  RH  094%=      5-min Rain = 0
KWT1 140722Z 24005KT 01/01 A3009 RMK A01 T00140005  RH  094%=      5-min Rain = 0
KWT1 140723Z 24005KT 01/01 A3009 RMK A01 T00140005  RH  094%=      5-min Rain = 0
KWT1 140724Z 24005KT 01/01 A301 RMK A01 T00140005  RH  094%=      5-min Rain = 0
KWT1 140725Z 24005KT 01/01 A301 RMK A01 T00130005  RH  094%=      5-min Rain = 0
KWT1 140726Z 24005KT 01/01 A301 RMK A01 T00130005  RH  094%=      5-min Rain = 0
KWT1 140727Z 24004KT 01/01 A301 RMK A01 T00130005  RH  094%=      5-min Rain = 0
KWT1 140728Z 25004KT 01/01 A301 RMK A01 T00130005  RH  094%=      5-min Rain = 0
KWT1 140729Z 25004KT 01/01 A301 RMK A01 T00130005  RH  094%=      5-min Rain = 0
KWT1 140730Z 26004KT 01/01 A301 RMK A01 T00130005  RH  094%=      5-min Rain = 0
KWT1 140731Z 26003KT 01/01 A301 RMK A01 T00130005  RH  094%=      5-min Rain = 0
KWT1 140732Z 26004KT 01/01 A301 RMK A01 T00130005  RH  095%=      5-min Rain = 0
KWT1 140733Z 26004KT 01/01 A301 RMK A01 T00130005  RH  095%=      5-min Rain = 0
KWT1 140734Z 25004KT 01/01 A301 RMK A01 T00130006  RH  095%=      5-min Rain = 0
KWT1 140735Z 25004KT 01/01 A301 RMK A01 T00130006  RH  095%=      5-min Rain = 0
KWT1 140736Z 25004KT 01/01 A301 RMK A01 T00130006  RH  095%=      5-min Rain = 0
KWT1 140737Z 25004KT 01/01 A301 RMK A01 T00130007  RH  095%=      5-min Rain = 0
KWT1 140738Z 25003KT 01/01 A301 RMK A01 T00140008  RH  095%=      5-min Rain = 0
KWT1 140739Z 25003KT 01/01 A301 RMK A01 T00140008  RH  095%=      5-min Rain = 0
KWT1 140740Z 24003KT 01/01 A301 RMK A01 T00140007  RH  095%=      5-min Rain = 0
KWT1 140741Z 24003KT 01/01 A301 RMK A01 T00140007  RH  095%=      5-min Rain = 0
KWT1 140742Z 24003KT 01/01 A301 RMK A01 T00140006  RH  095%=      5-min Rain = 0
KWT1 140743Z 24003KT 01/01 A301 RMK A01 T00140006  RH  095%=      5-min Rain = 0
KWT1 140744Z 24003KT 01/01 A301 RMK A01 T00130006  RH  095%=      5-min Rain = 0
KWT1 140745Z 24003KT 01/01 A301 RMK A01 T00130007  RH  095%=      5-min Rain = 0
KWT1 140746Z 24003KT 01/01 A301 RMK A01 T00140007  RH  095%=      5-min Rain = 0
KWT1 140747Z 24003KT 01/01 A3011 RMK A01 T00140008  RH  096%=      5-min Rain = 0
KWT1 140748Z 24003KT 02/01 A3011 RMK A01 T00150008  RH  096%=      5-min Rain = 0
KWT1 140749Z 24003KT 02/01 A3011 RMK A01 T00150009  RH  096%=      5-min Rain = 0
KWT1 140750Z 24003KT 02/01 A3011 RMK A01 T00160009  RH  096%=      5-min Rain = 0
KWT1 140751Z 23003KT 02/01 A3011 RMK A01 T00170010  RH  096%=      5-min Rain = 0
KWT1 140752Z 23003KT 02/01 A3011 RMK A01 T00170011  RH  095%=      5-min Rain = 0
KWT1 140753Z 23003KT 02/01 A3011 RMK A01 T00180011  RH  095%=      5-min Rain = 0
KWT1 140754Z 23003KT 02/01 A3011 RMK A01 T00180010  RH  095%=      5-min Rain = 0
KWT1 140755Z 23002KT 02/01 A3011 RMK A01 T00170009  RH  095%=      5-min Rain = 0
KWT1 140756Z 23002KT 02/01 A3011 RMK A01 T00170009  RH  094%=      5-min Rain = 0
KWT1 140757Z 23002KT 02/01 A3011 RMK A01 T00160008  RH  094%=      5-min Rain = 0
KWT1 140758Z 24002KT 02/01 A3011 RMK A01 T00170009  RH  094%=      5-min Rain = 0
KWT1 140759Z 25002KT 02/01 A3011 RMK A01 T00160008  RH  094%=      5-min Rain = 0
KWT1 140800Z 26002KT 02/01 A3011 RMK A01 T00160008  RH  094%=      5-min Rain = 0
KWT1 140801Z 27002KT 01/00 A3011 RMK A01 T00140004  RH  093%=      5-min Rain = 0
KWT1 140802Z 27002KT 01/M00 A3011 RMK A01 T00101002  RH  092%=      5-min Rain = 0
KWT1 140803Z 27002KT 01/M01 A3011 RMK A01 T00061006  RH  092%=      5-min Rain = 0
KWT1 140804Z 27002KT 01/M01 A3011 RMK A01 T00051006  RH  093%=      5-min Rain = 0
KWT1 140805Z 27002KT 01/M00 A3011 RMK A01 T00061003  RH  094%=      5-min Rain = 0
KWT1 140806Z 28002KT 01/00 A3011 RMK A01 T000700-0  RH  095%=      5-min Rain = 0
KWT1 140807Z 28003KT 01/00 A3011 RMK A01 T00080002  RH  096%=      5-min Rain = 0
KWT1 140808Z 28002KT 01/00 A3011 RMK A01 T00080002  RH  096%=      5-min Rain = 0
KWT1 140809Z 28002KT 01/00 A3011 RMK A01 T00090004  RH  096%=      5-min Rain = 0
KWT1 140810Z 29002KT 01/01 A3011 RMK A01 T00090005  RH  097%=      5-min Rain = 0
KWT1 140811Z 30002KT 01/01 A3011 RMK A01 T00100005  RH  097%=      5-min Rain = 0
KWT1 140812Z 30002KT 01/01 A3011 RMK A01 T00090005  RH  097%=      5-min Rain = 0
KWT1 140813Z 29003KT 01/01 A3011 RMK A01 T00100006  RH  097%=      5-min Rain = 0
KWT1 140814Z 30003KT 01/01 A3011 RMK A01 T00110006  RH  097%=      5-min Rain = 0
KWT1 140815Z 31002KT 01/01 A3011 RMK A01 T00100006  RH  097%=      5-min Rain = 0
KWT1 140816Z 30003KT 01/01 A3011 RMK A01 T00100005  RH  097%=      5-min Rain = 0
KWT1 140817Z 30003KT 01/00 A3011 RMK A01 T00090004  RH  097%=      5-min Rain = 0
KWT1 140818Z 30003KT 01/00 A3011 RMK A01 T00080004  RH  097%=      5-min Rain = 0
KWT1 140819Z 30003KT 01/00 A3011 RMK A01 T00090004  RH  097%=      5-min Rain = 0
KWT1 140820Z 29003KT 01/00 A3011 RMK A01 T00080004  RH  097%=      5-min Rain = 0
KWT1 140821Z 30003KT 01/00 A3011 RMK A01 T00090004  RH  097%=      5-min Rain = 0
KWT1 140822Z 31002KT 01/00 A3011 RMK A01 T00080003  RH  097%=      5-min Rain = 0
KWT1 140823Z 31003KT 01/00 A3011 RMK A01 T00080003  RH  097%=      5-min Rain = 0
KWT1 140824Z 30003KT 01/00 A3011 RMK A01 T00070003  RH  097%=      5-min Rain = 0
KWT1 140825Z 31003KT 01/00 A3011 RMK A01 T00080004  RH  097%=      5-min Rain = 0
KWT1 140826Z 31003KT 01/00 A3011 RMK A01 T00080004  RH  097%=      5-min Rain = 0
KWT1 140827Z 32003KT 01/00 A3011 RMK A01 T00080003  RH  097%=      5-min Rain = 0
KWT1 140828Z 32003KT 01/00 A3011 RMK A01 T00070003  RH  097%=      5-min Rain = 0
KWT1 140829Z 34003KT 01/00 A3011 RMK A01 T00060002  RH  097%=      5-min Rain = 0
KWT1 140830Z 35003KT 01/00 A3011 RMK A01 T00060001  RH  097%=      5-min Rain = 0
KWT1 140831Z 34003KT 01/00 A3011 RMK A01 T00050001  RH  097%=      5-min Rain = 0
KWT1 140832Z 32003KT 01/00 A3011 RMK A01 T00060002  RH  097%=      5-min Rain = 0
KWT1 140833Z 31003KT 01/00 A3011 RMK A01 T00070003  RH  098%=      5-min Rain = 0
KWT1 140834Z 33003KT 01/00 A3011 RMK A01 T00070003  RH  098%=      5-min Rain = 0
KWT1 140835Z 35003KT 01/00 A3011 RMK A01 T00070003  RH  097%=      5-min Rain = 0
KWT1 140836Z 34003KT 01/00 A3011 RMK A01 T00070003  RH  097%=      5-min Rain = 0
KWT1 140837Z 33003KT 01/00 A3011 RMK A01 T00060002  RH  097%=      5-min Rain = 0
KWT1 140838Z 32004KT 01/00 A3011 RMK A01 T00060002  RH  097%=      5-min Rain = 0
KWT1 140839Z 33004KT 01/00 A3011 RMK A01 T00060002  RH  097%=      5-min Rain = 0
KWT1 140840Z 33004KT 01/00 A3011 RMK A01 T00050001  RH  097%=      5-min Rain = 0
KWT1 140841Z 35003KT 00/00 A3011 RMK A01 T00040000  RH  097%=      5-min Rain = 0
KWT1 140842Z 34003KT 00/00 A3011 RMK A01 T000400-0  RH  097%=      5-min Rain = 0
KWT1 140843Z 33003KT 00/00 A3011 RMK A01 T00040000  RH  097%=      5-min Rain = 0
KWT1 140844Z 34003KT 00/00 A3011 RMK A01 T00040001  RH  098%=      5-min Rain = 0
KWT1 140845Z 33003KT 00/00 A3011 RMK A01 T00040001  RH  098%=      5-min Rain = 0
KWT1 140846Z 32003KT 00/00 A3011 RMK A01 T00040000  RH  098%=      5-min Rain = 0
KWT1 140847Z 34003KT 00/00 A3011 RMK A01 T00040001  RH  098%=      5-min Rain = 0
KWT1 140848Z 35003KT 00/00 A3011 RMK A01 T00040000  RH  098%=      5-min Rain = 0
KWT1 140849Z 35004KT 00/00 A3011 RMK A01 T000300-0  RH  098%=      5-min Rain = 0
KWT1 140850Z 34004KT 00/M00 A3011 RMK A01 T00021001  RH  097%=      5-min Rain = 0
KWT1 140851Z 33003KT 00/M00 A3011 RMK A01 T00021002  RH  098%=      5-min Rain = 0
KWT1 140852Z 33004KT 00/M00 A3011 RMK A01 T00021001  RH  098%=      5-min Rain = 0
KWT1 140853Z 34004KT 00/M00 A3011 RMK A01 T00011002  RH  098%=      5-min Rain = 0
KWT1 140854Z 34003KT 00/M00 A3011 RMK A01 T00011002  RH  098%=      5-min Rain = 0
KWT1 140855Z 35003KT 00/M00 A3012 RMK A01 T00011002  RH  098%=      5-min Rain = 0
KWT1 140856Z 35003KT 00/M00 A3012 RMK A01 T00011002  RH  098%=      5-min Rain = 0
KWT1 140857Z 34003KT 00/M00 A3012 RMK A01 T00011002  RH  098%=      5-min Rain = 0
KWT1 140858Z 33003KT 00/M00 A3012 RMK A01 T00011002  RH  098%=      5-min Rain = 0
KWT1 140859Z 32003KT 00/M00 A3011 RMK A01 T00021001  RH  098%=      5-min Rain = 0
KWT1 140900Z 32003KT 00/00 A3012 RMK A01 T00020000  RH  098%=      5-min Rain = 0
KWT1 140901Z 33003KT 00/00 A3012 RMK A01 T00020000  RH  098%=      5-min Rain = 0
KWT1 140902Z 34003KT 00/00 A3012 RMK A01 T00020000  RH  098%=      5-min Rain = 0
KWT1 140903Z 34004KT 00/00 A3012 RMK A01 T00020000  RH  098%=      5-min Rain = 0
KWT1 140904Z 34004KT 00/00 A3012 RMK A01 T00030000  RH  098%=      5-min Rain = 0
KWT1 140905Z 34005KT 00/M00 A3012 RMK A01 T00021001  RH  098%=      5-min Rain = 0
KWT1 140906Z 34004KT 00/M00 A3012 RMK A01 T00011002  RH  098%=      5-min Rain = 0
KWT1 140907Z 34004KT M00/M00 A3012 RMK A01 T10011004  RH  098%=      5-min Rain = 0
KWT1 140908Z 34004KT M00/M01 A3012 RMK A01 T10021006  RH  097%=      5-min Rain = 0
KWT1 140909Z 35004KT M00/M01 A3012 RMK A01 T10031007  RH  097%=      5-min Rain = 0
KWT1 140910Z 35004KT M00/M01 A3012 RMK A01 T10031007  RH  098%=      5-min Rain = 0
KWT1 140911Z 34004KT M00/M01 A3012 RMK A01 T10031006  RH  098%=      5-min Rain = 0
KWT1 140912Z 34004KT M00/M01 A3012 RMK A01 T10031006  RH  098%=      5-min Rain = 0
KWT1 140913Z 35005KT M00/M01 A3012 RMK A01 T10031006  RH  098%=      5-min Rain = 0
KWT1 140914Z 35004KT M00/M01 A3012 RMK A01 T10041007  RH  098%=      5-min Rain = 0
KWT1 140915Z 36004KT M00/M01 A3012 RMK A01 T10041007  RH  098%=      5-min Rain = 0
KWT1 140916Z 00004KT M01/M01 A3012 RMK A01 T10051008  RH  098%=      5-min Rain = 0
KWT1 140917Z 00004KT M01/M01 A3012 RMK A01 T10051008  RH  098%=      5-min Rain = 0
KWT1 140918Z 00004KT M01/M01 A3012 RMK A01 T10051009  RH  098%=      5-min Rain = 0
KWT1 140919Z 00004KT M01/M01 A3013 RMK A01 T10051008  RH  098%=      5-min Rain = 0
KWT1 140920Z 36004KT M01/M01 A3013 RMK A01 T10051008  RH  098%=      5-min Rain = 0
KWT1 140921Z 35004KT M01/M01 A3013 RMK A01 T10051008  RH  098%=      5-min Rain = 0
KWT1 140922Z 00004KT M01/M01 A3013 RMK A01 T10051008  RH  098%=      5-min Rain = 0
KWT1 140923Z 00004KT M01/M01 A3013 RMK A01 T10051007  RH  098%=      5-min Rain = 0
KWT1 140924Z 00004KT M01/M01 A3013 RMK A01 T10051007  RH  098%=      5-min Rain = 0
KWT1 140925Z 01003KT M01/M01 A3013 RMK A01 T10051007  RH  098%=      5-min Rain = 0
KWT1 140926Z 01004KT M01/M01 A3013 RMK A01 T10051007  RH  098%=      5-min Rain = 0
KWT1 140927Z 01003KT M00/M01 A3013 RMK A01 T10041006  RH  098%=      5-min Rain = 0
KWT1 140928Z 01003KT M00/M01 A3013 RMK A01 T10031005  RH  099%=      5-min Rain = 0
KWT1 140929Z 01004KT M00/M00 A3013 RMK A01 T10021004  RH  099%=      5-min Rain = 0
KWT1 140930Z 01004KT M00/M00 A3013 RMK A01 T10011003  RH  099%=      5-min Rain = 0
KWT1 140931Z 00004KT M00/M00 A3013 RMK A01 T10011002  RH  099%=      5-min Rain = 0
KWT1 140932Z 00004KT 00/00 A3013 RMK A01 T00-000-2  RH  099%=      5-min Rain = 0
KWT1 140933Z 00005KT 00/00 A3013 RMK A01 T000000-2  RH  099%=      5-min Rain = 0
KWT1 140934Z 36005KT 00/00 A3013 RMK A01 T000000-2  RH  099%=      5-min Rain = 0
KWT1 140935Z 36005KT 00/00 A3013 RMK A01 T000000-2  RH  099%=      5-min Rain = 0
KWT1 140936Z 36005KT 00/00 A3013 RMK A01 T000000-2  RH  098%=      5-min Rain = 0
KWT1 140937Z 00005KT 00/00 A3013 RMK A01 T00-000-3  RH  098%=      5-min Rain = 0
KWT1 140938Z 35004KT M00/M00 A3013 RMK A01 T10011004  RH  098%=      5-min Rain = 0
KWT1 140939Z 35005KT M00/M01 A3013 RMK A01 T10021005  RH  098%=      5-min Rain = 0
KWT1 140940Z 34005KT M00/M01 A3013 RMK A01 T10021005  RH  098%=      5-min Rain = 0
KWT1 140941Z 34005KT M00/M01 A3013 RMK A01 T10021005  RH  098%=      5-min Rain = 0
KWT1 140942Z 35005KT M00/M01 A3013 RMK A01 T10021006  RH  097%=      5-min Rain = 0
KWT1 140943Z 35005KT M00/M01 A3013 RMK A01 T10041009  RH  097%=      5-min Rain = 0
KWT1 140944Z 35005KT M01/M01 A3013 RMK A01 T10051010  RH  097%=      5-min Rain = 0
KWT1 140945Z 35005KT M01/M01 A3013 RMK A01 T10051009  RH  097%=      5-min Rain = 0
KWT1 140946Z 34005KT M00/M01 A3013 RMK A01 T10041008  RH  098%=      5-min Rain = 0
KWT1 140947Z 35006KT M00/M01 A3013 RMK A01 T10041008  RH  098%=      5-min Rain = 0
KWT1 140948Z 35006KT M01/M01 A3013 RMK A01 T10051008  RH  098%=      5-min Rain = 0
KWT1 140949Z 35006KT M00/M01 A3013 RMK A01 T10041007  RH  098%=      5-min Rain = 0
KWT1 140950Z 35007KT M00/M01 A3013 RMK A01 T10031005  RH  098%=      5-min Rain = 0
KWT1 140951Z 34008KT M00/M00 A3013 RMK A01 T10021004  RH  098%=      5-min Rain = 0
KWT1 140952Z 35007KT 00/00 A3013 RMK A01 T00-000-3  RH  098%=      5-min Rain = 0
KWT1 140953Z 36007KT 00/00 A3013 RMK A01 T000000-2  RH  098%=      5-min Rain = 0
KWT1 140954Z 00006KT 00/M00 A3013 RMK A01 T00011002  RH  098%=      5-min Rain = 0
KWT1 140955Z 01006KT 00/00 A3013 RMK A01 T000000-4  RH  097%=      5-min Rain = 0
KWT1 140956Z 00006KT 00/00 A3013 RMK A01 T000000-4  RH  097%=      5-min Rain = 0
KWT1 140957Z 36007KT 00/00 A3013 RMK A01 T000000-4  RH  097%=      5-min Rain = 0
KWT1 140958Z 35008KT 00/00 A3013 RMK A01 T000000-4  RH  097%=      5-min Rain = 0
KWT1 140959Z 35008KT 00/00 A3013 RMK A01 T000000-4  RH  097%=      5-min Rain = 0
KWT1 141000Z 00007KT 00/M00 A3013 RMK A01 T00011003  RH  097%=      5-min Rain = 0
KWT1 141001Z 01007KT 00/M00 A3014 RMK A01 T00011003  RH  097%=      5-min Rain = 0
KWT1 141002Z 00007KT 00/M00 A3014 RMK A01 T00021003  RH  097%=      5-min Rain = 0
KWT1 141003Z 36007KT 00/M00 A3014 RMK A01 T00031002  RH  097%=      5-min Rain = 0
KWT1 141004Z 00007KT 00/00 A3014 RMK A01 T000400-0  RH  097%=      5-min Rain = 0
KWT1 141005Z 01006KT 01/00 A3014 RMK A01 T000500-0  RH  097%=      5-min Rain = 0
KWT1 141006Z 36006KT 01/00 A3014 RMK A01 T000500-0  RH  096%=      5-min Rain = 0
KWT1 141007Z 35007KT 01/00 A3014 RMK A01 T00060001  RH  096%=      5-min Rain = 0
KWT1 141008Z 36007KT 01/00 A3014 RMK A01 T00070002  RH  096%=      5-min Rain = 0
KWT1 141009Z 00007KT 01/00 A3014 RMK A01 T00080002  RH  096%=      5-min Rain = 0
KWT1 141010Z 00006KT 01/00 A3014 RMK A01 T00090003  RH  096%=      5-min Rain = 0
KWT1 141011Z 36007KT 01/00 A3014 RMK A01 T00090002  RH  095%=      5-min Rain = 0
KWT1 141012Z 35008KT 01/00 A3014 RMK A01 T00110004  RH  095%=      5-min Rain = 0
KWT1 141013Z 36007KT 01/01 A3014 RMK A01 T00130005  RH  094%=      5-min Rain = 0
KWT1 141014Z 00009KT 01/01 A3014 RMK A01 T00140005  RH  094%=      5-min Rain = 0
KWT1 141015Z 36007KT 02/01 A3014 RMK A01 T00160006  RH  093%=      5-min Rain = 0
KWT1 141016Z 36008KT 02/01 A3014 RMK A01 T00170006  RH  092%=      5-min Rain = 0
KWT1 141017Z 36008KT 02/01 A3014 RMK A01 T00180006  RH  092%=      5-min Rain = 0
KWT1 141018Z 00007KT 02/01 A3014 RMK A01 T00190006  RH  092%=      5-min Rain = 0
KWT1 141019Z 36008KT 02/01 A3014 RMK A01 T00190007  RH  091%=      5-min Rain = 0
KWT1 141020Z 36008KT 02/01 A3014 RMK A01 T00200006  RH  091%=      5-min Rain = 0
KWT1 141021Z 36008KT 02/01 A3014 RMK A01 T00200007  RH  091%=      5-min Rain = 0
KWT1 141022Z 00010KT 02/01 A3015 RMK A01 T00210007  RH  090%=      5-min Rain = 0
KWT1 141023Z 36009KT 02/01 A3015 RMK A01 T00220007  RH  090%=      5-min Rain = 0
KWT1 141024Z 36009KT 02/01 A3014 RMK A01 T00230008  RH  090%=      5-min Rain = 0
KWT1 141025Z 00009KT 02/01 A3015 RMK A01 T00240007  RH  089%=      5-min Rain = 0
KWT1 141026Z 00009KT 02/01 A3015 RMK A01 T00240007  RH  089%=      5-min Rain = 0
KWT1 141027Z 36008KT 02/01 A3015 RMK A01 T00240007  RH  089%=      5-min Rain = 0
KWT1 141028Z 36008KT 02/01 A3015 RMK A01 T00240007  RH  089%=      5-min Rain = 0
KWT1 141029Z 36010KT 02/01 A3015 RMK A01 T00240007  RH  089%=      5-min Rain = 0
KWT1 141030Z 36010KT 02/01 A3015 RMK A01 T00240007  RH  089%=      5-min Rain = 0
KWT1 141031Z 36012KT 03/01 A3015 RMK A01 T00250008  RH  088%=      5-min Rain = 0
KWT1 141032Z 36011KT 03/01 A3015 RMK A01 T00280009  RH  088%=      5-min Rain = 0
KWT1 141033Z 00009KT 03/01 A3015 RMK A01 T00280009  RH  087%=      5-min Rain = 0
KWT1 141034Z 00010KT 03/01 A3015 RMK A01 T00290008  RH  087%=      5-min Rain = 0
KWT1 141035Z 00009KT 03/01 A3015 RMK A01 T00280008  RH  087%=      5-min Rain = 0
KWT1 141036Z 01009KT 03/01 A3015 RMK A01 T00280008  RH  087%=      5-min Rain = 0
KWT1 141037Z 00009KT 03/01 A3015 RMK A01 T00280008  RH  087%=      5-min Rain = 0
KWT1 141038Z 36008KT 03/01 A3015 RMK A01 T00280008  RH  086%=      5-min Rain = 0
KWT1 141039Z 00008KT 03/01 A3015 RMK A01 T00280008  RH  086%=      5-min Rain = 0
KWT1 141040Z 01009KT 03/01 A3015 RMK A01 T00280008  RH  087%=      5-min Rain = 0
KWT1 141041Z 36010KT 03/01 A3015 RMK A01 T00280008  RH  086%=      5-min Rain = 0
KWT1 141042Z 00010KT 03/01 A3015 RMK A01 T00290007  RH  086%=      5-min Rain = 0
KWT1 141043Z 00009KT 03/01 A3015 RMK A01 T00290007  RH  085%=      5-min Rain = 0
KWT1 141044Z 00010KT 03/01 A3015 RMK A01 T00290007  RH  085%=      5-min Rain = 0
KWT1 141045Z 00009KT 03/01 A3015 RMK A01 T00290007  RH  085%=      5-min Rain = 0
KWT1 141046Z 01007KT 03/01 A3015 RMK A01 T00290006  RH  085%=      5-min Rain = 0
KWT1 141047Z 00009KT 03/01 A3015 RMK A01 T00280006  RH  085%=      5-min Rain = 0
KWT1 141048Z 01009KT 03/01 A3016 RMK A01 T00280006  RH  086%=      5-min Rain = 0
KWT1 141049Z 01008KT 03/01 A3016 RMK A01 T00280006  RH  086%=      5-min Rain = 0
KWT1 141050Z 01008KT 03/01 A3016 RMK A01 T00280006  RH  086%=      5-min Rain = 0
KWT1 141051Z 01009KT 03/01 A3016 RMK A01 T00280006  RH  086%=      5-min Rain = 0
KWT1 141052Z 01009KT 03/01 A3016 RMK A01 T00270005  RH  086%=      5-min Rain = 0
KWT1 141053Z 01010KT 03/01 A3016 RMK A01 T00270006  RH  086%=      5-min Rain = 0
KWT1 141054Z 01009KT 03/01 A3016 RMK A01 T00270005  RH  085%=      5-min Rain = 0
KWT1 141055Z 01010KT 03/01 A3016 RMK A01 T00280005  RH  085%=      5-min Rain = 0
KWT1 141056Z 01011KT 03/01 A3016 RMK A01 T00280005  RH  085%=      5-min Rain = 0
KWT1 141057Z 01009KT 03/01 A3017 RMK A01 T00270005  RH  085%=      5-min Rain = 0
KWT1 141058Z 01010KT 03/01 A3017 RMK A01 T00270005  RH  085%=      5-min Rain = 0
KWT1 141059Z 01008KT 03/01 A3017 RMK A01 T00270005  RH  085%=      5-min Rain = 0
KWT1 141100Z 01009KT 03/00 A3017 RMK A01 T00260004  RH  085%=      5-min Rain = 0
KWT1 141101Z 01008KT 03/00 A3017 RMK A01 T00260004  RH  085%=      5-min Rain = 0
KWT1 141102Z 01009KT 03/00 A3017 RMK A01 T00260004  RH  085%=      5-min Rain = 0
KWT1 141103Z 01009KT 03/00 A3017 RMK A01 T00250003  RH  086%=      5-min Rain = 0
KWT1 141104Z 01009KT 03/00 A3017 RMK A01 T00250003  RH  086%=      5-min Rain = 0
KWT1 141105Z 01008KT 03/00 A3017 RMK A01 T00250003  RH  086%=      5-min Rain = 0
KWT1 141106Z 01007KT 02/00 A3017 RMK A01 T00240003  RH  086%=      5-min Rain = 0
KWT1 141107Z 01009KT 02/00 A3017 RMK A01 T00230002  RH  086%=      5-min Rain = 0
KWT1 141108Z 01010KT 02/00 A3017 RMK A01 T00240003  RH  086%=      5-min Rain = 0
KWT1 141109Z 01010KT 02/00 A3017 RMK A01 T00240003  RH  086%=      5-min Rain = 0
KWT1 141110Z 01009KT 02/00 A3017 RMK A01 T00240002  RH  086%=      5-min Rain = 0
KWT1 141111Z 02009KT 02/00 A3017 RMK A01 T00240002  RH  086%=      5-min Rain = 0
KWT1 141112Z 01010KT 02/00 A3017 RMK A01 T00230002  RH  086%=      5-min Rain = 0
KWT1 141113Z 01011KT 02/00 A3017 RMK A01 T00230002  RH  086%=      5-min Rain = 0
KWT1 141114Z 01011KT 02/00 A3017 RMK A01 T00230002  RH  086%=      5-min Rain = 0
KWT1 141115Z 02011KT 02/00 A3017 RMK A01 T00230002  RH  086%=      5-min Rain = 0
KWT1 141116Z 02010KT 02/00 A3017 RMK A01 T00240002  RH  086%=      5-min Rain = 0
KWT1 141117Z 02010KT 02/00 A3017 RMK A01 T00230002  RH  086%=      5-min Rain = 0
KWT1 141118Z 02009KT 02/00 A3017 RMK A01 T00230002  RH  086%=      5-min Rain = 0
KWT1 141119Z 01010KT 02/00 A3017 RMK A01 T00220002  RH  086%=      5-min Rain = 0
KWT1 141120Z 02012KT 02/00 A3018 RMK A01 T00220002  RH  087%=      5-min Rain = 0
KWT1 141121Z 02011KT 02/00 A3018 RMK A01 T00210001  RH  087%=      5-min Rain = 0
KWT1 141122Z 02010KT 02/00 A3018 RMK A01 T00220002  RH  086%=      5-min Rain = 0
KWT1 141123Z 02011KT 02/00 A3018 RMK A01 T00220001  RH  086%=      5-min Rain = 0
KWT1 141124Z 01011KT 02/00 A3018 RMK A01 T00220001  RH  086%=      5-min Rain = 0
KWT1 141125Z 01010KT 02/00 A3018 RMK A01 T00210001  RH  087%=      5-min Rain = 0
KWT1 141126Z 01010KT 02/00 A3018 RMK A01 T00210001  RH  087%=      5-min Rain = 0
KWT1 141127Z 01011KT 02/00 A3018 RMK A01 T00200000  RH  087%=      5-min Rain = 0
KWT1 141128Z 02011KT 02/00 A3018 RMK A01 T00200001  RH  087%=      5-min Rain = 0
KWT1 141129Z 02010KT 02/00 A3018 RMK A01 T00200001  RH  087%=      5-min Rain = 0
KWT1 141130Z 01010KT 02/00 A3018 RMK A01 T00200001  RH  087%=      5-min Rain = 0
KWT1 141131Z 01011KT 02/00 A3018 RMK A01 T00200000  RH  087%=      5-min Rain = 0
KWT1 141132Z 01010KT 02/00 A3018 RMK A01 T00200001  RH  087%=      5-min Rain = 0
KWT1 141133Z 02010KT 02/00 A3018 RMK A01 T00200001  RH  087%=      5-min Rain = 0
KWT1 141134Z 01009KT 02/00 A3018 RMK A01 T00200001  RH  087%=      5-min Rain = 0
KWT1 141135Z 01011KT 02/00 A3018 RMK A01 T00190000  RH  087%=      5-min Rain = 0
KWT1 141136Z 02010KT 02/00 A3018 RMK A01 T00190000  RH  087%=      5-min Rain = 0
KWT1 141137Z 02011KT 02/00 A3018 RMK A01 T00190000  RH  087%=      5-min Rain = 0
KWT1 141138Z 01012KT 02/00 A3018 RMK A01 T00200000  RH  087%=      5-min Rain = 0
KWT1 141139Z 01011KT 02/00 A3018 RMK A01 T00210001  RH  087%=      5-min Rain = 0
KWT1 141140Z 01010KT 02/00 A3018 RMK A01 T00210000  RH  086%=      5-min Rain = 0
KWT1 141141Z 02012KT 02/00 A3018 RMK A01 T002100-0  RH  086%=      5-min Rain = 0
KWT1 141142Z 02011KT 02/00 A3018 RMK A01 T002000-0  RH  086%=      5-min Rain = 0
KWT1 141143Z 02010KT 02/00 A3018 RMK A01 T002000-0  RH  086%=      5-min Rain = 0
KWT1 141144Z 02012KT 02/M00 A3018 RMK A01 T00201001  RH  086%=      5-min Rain = 0
KWT1 141145Z 01013KT 02/00 A3018 RMK A01 T002000-0  RH  086%=      5-min Rain = 0
KWT1 141146Z 02012KT 02/M00 A3018 RMK A01 T00201001  RH  086%=      5-min Rain = 0
KWT1 141147Z 02012KT 02/M00 A3018 RMK A01 T00211001  RH  086%=      5-min Rain = 0
KWT1 141148Z 01011KT 02/M00 A3018 RMK A01 T00211001  RH  085%=      5-min Rain = 0
KWT1 141149Z 02012KT 02/M00 A3018 RMK A01 T00201001  RH  085%=      5-min Rain = 0
KWT1 141150Z 01012G17KT 02/M00 A3019 RMK A01 T00201002  RH  086%=      5-min Rain = 0
KWT1 141151Z 02013KT 02/M00 A3019 RMK A01 T00201002  RH  086%=      5-min Rain = 0
KWT1 141152Z 02011KT 02/M00 A3019 RMK A01 T00201001  RH  085%=      5-min Rain = 0
KWT1 141153Z 02012KT 02/M00 A3018 RMK A01 T00201002  RH  085%=      5-min Rain = 0
KWT1 141154Z 02010KT 02/M00 A3018 RMK A01 T00211002  RH  085%=      5-min Rain = 0
KWT1 141155Z 01011KT 02/M00 A3018 RMK A01 T00201002  RH  085%=      5-min Rain = 0
KWT1 141156Z 02012KT 02/M00 A3019 RMK A01 T00191002  RH  086%=      5-min Rain = 0
KWT1 141157Z 01013KT 02/M00 A3018 RMK A01 T00191002  RH  086%=      5-min Rain = 0
KWT1 141158Z 01012KT 02/M00 A3019 RMK A01 T00201002  RH  086%=      5-min Rain = 0
KWT1 141159Z 01011KT 02/M00 A3018 RMK A01 T00201002  RH  085%=      5-min Rain = 0
KWT1 141200Z 01012KT 02/M00 A3018 RMK A01 T00201002  RH  085%=      5-min Rain = 0
KWT1 141201Z 01015KT 02/M00 A3018 RMK A01 T00201002  RH  085%=      5-min Rain = 0
KWT1 141202Z 01012KT 02/M00 A3019 RMK A01 T00211002  RH  085%=      5-min Rain = 0
KWT1 141203Z 01013KT 02/M00 A3019 RMK A01 T00211002  RH  085%=      5-min Rain = 0
KWT1 141204Z 01012KT 02/M00 A3019 RMK A01 T00211002  RH  085%=      5-min Rain = 0
KWT1 141205Z 01011KT 02/M00 A3019 RMK A01 T00201003  RH  085%=      5-min Rain = 0
KWT1 141206Z 01013KT 02/M00 A3019 RMK A01 T00201003  RH  085%=      5-min Rain = 0
KWT1 141207Z 01012KT 02/M00 A3019 RMK A01 T00201003  RH  085%=      5-min Rain = 0
KWT1 141208Z 01013KT 02/M00 A3019 RMK A01 T00201003  RH  085%=      5-min Rain = 0
KWT1 141209Z 02013KT 02/M00 A3019 RMK A01 T00201003  RH  085%=      5-min Rain = 0
KWT1 141210Z 01012KT 02/M00 A3019 RMK A01 T00201003  RH  085%=      5-min Rain = 0
KWT1 141211Z 02012KT 02/M00 A3019 RMK A01 T00201003  RH  085%=      5-min Rain = 0
KWT1 141212Z 01012KT 02/M00 A3019 RMK A01 T00201003  RH  085%=      5-min Rain = 0
KWT1 141213Z 01014KT 02/M00 A3019 RMK A01 T00201003  RH  085%=      5-min Rain = 0
KWT1 141214Z 01013KT 02/M00 A302 RMK A01 T00201003  RH  085%=      5-min Rain = 0
KWT1 141215Z 01013KT 02/M00 A302 RMK A01 T00201003  RH  085%=      5-min Rain = 0
KWT1 141216Z 01010KT 02/M00 A302 RMK A01 T00201004  RH  084%=      5-min Rain = 0
KWT1 141217Z 01011G16KT 02/M00 A302 RMK A01 T00201004  RH  084%=      5-min Rain = 0
KWT1 141218Z 01010KT 02/M00 A302 RMK A01 T00191004  RH  084%=      5-min Rain = 0
KWT1 141219Z 01011KT 02/M00 A302 RMK A01 T00191004  RH  085%=      5-min Rain = 0
KWT1 141220Z 01011KT 02/M00 A302 RMK A01 T00191004  RH  085%=      5-min Rain = 0
KWT1 141221Z 01012KT 02/M00 A302 RMK A01 T00191004  RH  085%=      5-min Rain = 0
KWT1 141222Z 01011KT 02/M00 A302 RMK A01 T00191004  RH  085%=      5-min Rain = 0
KWT1 141223Z 01010KT 02/M00 A302 RMK A01 T00191004  RH  085%=      5-min Rain = 0
KWT1 141224Z 01009KT 02/M00 A302 RMK A01 T00191004  RH  085%=      5-min Rain = 0
KWT1 141225Z 01011KT 02/M00 A302 RMK A01 T00191004  RH  085%=      5-min Rain = 0
KWT1 141226Z 01011KT 02/M00 A302 RMK A01 T00181004  RH  085%=      5-min Rain = 0
KWT1 141227Z 01011KT 02/M01 A302 RMK A01 T00181005  RH  085%=      5-min Rain = 0
KWT1 141228Z 01009KT 02/M01 A3021 RMK A01 T00181005  RH  085%=      5-min Rain = 0
KWT1 141229Z 01010KT 02/M01 A3021 RMK A01 T00181005  RH  085%=      5-min Rain = 0
KWT1 141230Z 01010KT 02/M01 A3021 RMK A01 T00181005  RH  085%=      5-min Rain = 0
KWT1 141231Z 01009KT 02/M01 A3021 RMK A01 T00181005  RH  085%=      5-min Rain = 0
KWT1 141232Z 01009KT 02/M01 A3021 RMK A01 T00181005  RH  085%=      5-min Rain = 0
KWT1 141233Z 01011KT 02/M01 A3021 RMK A01 T00171005  RH  085%=      5-min Rain = 0
KWT1 141234Z 01009KT 02/M01 A3021 RMK A01 T00171005  RH  085%=      5-min Rain = 0
KWT1 141235Z 01010KT 02/M01 A3021 RMK A01 T00171005  RH  085%=      5-min Rain = 0
KWT1 141236Z 01010KT 02/M01 A3021 RMK A01 T00171005  RH  085%=      5-min Rain = 0
KWT1 141237Z 01009KT 02/M01 A3022 RMK A01 T00171005  RH  085%=      5-min Rain = 0
KWT1 141238Z 01010KT 02/M01 A3022 RMK A01 T00171005  RH  085%=      5-min Rain = 0
KWT1 141239Z 01010KT 02/M01 A3022 RMK A01 T00171006  RH  085%=      5-min Rain = 0
KWT1 141240Z 01009KT 02/M01 A3022 RMK A01 T00171006  RH  085%=      5-min Rain = 0
KWT1 141241Z 01010KT 02/M01 A3022 RMK A01 T00161006  RH  085%=      5-min Rain = 0
KWT1 141242Z 01010KT 02/M01 A3022 RMK A01 T00161006  RH  085%=      5-min Rain = 0
KWT1 141243Z 02010KT 02/M01 A3022 RMK A01 T00161006  RH  085%=      5-min Rain = 0
KWT1 141244Z 01011KT 02/M01 A3022 RMK A01 T00161006  RH  085%=      5-min Rain = 0
KWT1 141245Z 01011KT 02/M01 A3022 RMK A01 T00171006  RH  085%=      5-min Rain = 0
KWT1 141246Z 01010KT 02/M01 A3022 RMK A01 T00171006  RH  085%=      5-min Rain = 0
KWT1 141247Z 01010KT 02/M01 A3022 RMK A01 T00171006  RH  085%=      5-min Rain = 0
KWT1 141248Z 01010KT 02/M01 A3022 RMK A01 T00171006  RH  085%=      5-min Rain = 0
KWT1 141249Z 01010KT 02/M01 A3022 RMK A01 T00171007  RH  085%=      5-min Rain = 0
KWT1 141250Z 01009KT 02/M01 A3022 RMK A01 T00161007  RH  085%=      5-min Rain = 0
KWT1 141251Z 02009KT 02/M01 A3022 RMK A01 T00161007  RH  085%=      5-min Rain = 0
KWT1 141252Z 02009KT 02/M01 A3022 RMK A01 T00161007  RH  085%=      5-min Rain = 0
KWT1 141253Z 01010KT 02/M01 A3022 RMK A01 T00161007  RH  085%=      5-min Rain = 0
KWT1 141254Z 01010KT 02/M01 A3023 RMK A01 T00151008  RH  085%=      5-min Rain = 0
KWT1 141255Z 01009KT 02/M01 A3023 RMK A01 T00151008  RH  085%=      5-min Rain = 0
KWT1 141256Z 01009KT 02/M01 A3023 RMK A01 T00151008  RH  085%=      5-min Rain = 0
KWT1 141257Z 01009KT 02/M01 A3023 RMK A01 T00151008  RH  085%=      5-min Rain = 0
KWT1 141258Z 01010KT 02/M01 A3023 RMK A01 T00151008  RH  084%=      5-min Rain = 0
KWT1 141259Z 01010KT 02/M01 A3023 RMK A01 T00151009  RH  084%=      5-min Rain = 0
KWT1 141300Z 01012KT 02/M01 A3023 RMK A01 T00161009  RH  084%=      5-min Rain = 0
KWT1 141301Z 01008KT 02/M01 A3023 RMK A01 T00161010  RH  083%=      5-min Rain = 0
KWT1 141302Z 01011KT 02/M01 A3023 RMK A01 T00161010  RH  083%=      5-min Rain = 0
KWT1 141303Z 01011KT 02/M01 A3023 RMK A01 T00161011  RH  083%=      5-min Rain = 0
KWT1 141304Z 01010KT 02/M01 A3023 RMK A01 T00161011  RH  082%=      5-min Rain = 0
KWT1 141305Z 02011KT 02/M01 A3023 RMK A01 T00171011  RH  082%=      5-min Rain = 0
KWT1 141306Z 01010KT 02/M01 A3023 RMK A01 T00171012  RH  081%=      5-min Rain = 0
KWT1 141307Z 01011KT 02/M01 A3023 RMK A01 T00171012  RH  081%=      5-min Rain = 0
KWT1 141308Z 01010KT 02/M01 A3023 RMK A01 T00171012  RH  081%=      5-min Rain = 0
KWT1 141309Z 01010KT 02/M01 A3023 RMK A01 T00171013  RH  081%=      5-min Rain = 0
KWT1 141310Z 01012KT 02/M01 A3023 RMK A01 T00161013  RH  081%=      5-min Rain = 0
KWT1 141311Z 02008KT 02/M01 A3024 RMK A01 T00171014  RH  080%=      5-min Rain = 0
KWT1 141312Z 01010KT 02/M01 A3024 RMK A01 T00171014  RH  080%=      5-min Rain = 0
KWT1 141313Z 01010KT 02/M01 A3024 RMK A01 T00171014  RH  080%=      5-min Rain = 0
KWT1 141314Z 01011KT 02/M02 A3024 RMK A01 T00161015  RH  080%=      5-min Rain = 0
KWT1 141315Z 01011KT 02/M02 A3024 RMK A01 T00171015  RH  079%=      5-min Rain = 0
KWT1 141316Z 01012KT 02/M02 A3024 RMK A01 T00171016  RH  079%=      5-min Rain = 0
KWT1 141317Z 01012KT 02/M02 A3024 RMK A01 T00171016  RH  079%=      5-min Rain = 0
KWT1 141318Z 01010KT 02/M02 A3024 RMK A01 T00171017  RH  078%=      5-min Rain = 0
KWT1 141319Z 01009KT 02/M02 A3024 RMK A01 T00181016  RH  078%=      5-min Rain = 0
KWT1 141320Z 01012KT 02/M02 A3024 RMK A01 T00171017  RH  078%=      5-min Rain = 0
KWT1 141321Z 01011KT 02/M02 A3024 RMK A01 T00171017  RH  078%=      5-min Rain = 0
KWT1 141322Z 01010KT 02/M02 A3024 RMK A01 T00171018  RH  078%=      5-min Rain = 0
KWT1 141323Z 01011G17KT 02/M02 A3024 RMK A01 T00171018  RH  078%=      5-min Rain = 0
KWT1 141324Z 01011KT 02/M02 A3024 RMK A01 T00161019  RH  077%=      5-min Rain = 0
KWT1 141325Z 01012KT 02/M02 A3025 RMK A01 T00171019  RH  077%=      5-min Rain = 0
KWT1 141326Z 01012KT 02/M02 A3025 RMK A01 T00171020  RH  076%=      5-min Rain = 0
KWT1 141327Z 01012KT 02/M02 A3025 RMK A01 T00171021  RH  076%=      5-min Rain = 0
KWT1 141328Z 01010KT 02/M02 A3025 RMK A01 T00171021  RH  076%=      5-min Rain = 0
KWT1 141329Z 01010KT 02/M02 A3025 RMK A01 T00171021  RH  076%=      5-min Rain = 0
KWT1 141330Z 01011KT 02/M02 A3025 RMK A01 T00171021  RH  076%=      5-min Rain = 0
KWT1 141331Z 01011KT 02/M02 A3025 RMK A01 T00161022  RH  076%=      5-min Rain = 0
KWT1 141332Z 01013KT 02/M02 A3025 RMK A01 T00171022  RH  075%=      5-min Rain = 0
KWT1 141333Z 01010KT 02/M02 A3025 RMK A01 T00171023  RH  075%=      5-min Rain = 0
KWT1 141334Z 01010KT 02/M02 A3025 RMK A01 T00171022  RH  075%=      5-min Rain = 0
KWT1 141335Z 01012G17KT 02/M02 A3025 RMK A01 T00171023  RH  075%=      5-min Rain = 0
KWT1 141336Z 01011KT 02/M02 A3025 RMK A01 T00171023  RH  074%=      5-min Rain = 0
KWT1 141337Z 01012KT 02/M02 A3025 RMK A01 T00171024  RH  074%=      5-min Rain = 0
KWT1 141338Z 01011KT 02/M02 A3025 RMK A01 T00181024  RH  074%=      5-min Rain = 0
KWT1 141339Z 01011KT 02/M02 A3025 RMK A01 T00181024  RH  074%=      5-min Rain = 0
KWT1 141340Z 01011KT 02/M03 A3026 RMK A01 T00181025  RH  073%=      5-min Rain = 0
KWT1 141341Z 01010KT 02/M03 A3026 RMK A01 T00181025  RH  073%=      5-min Rain = 0
KWT1 141342Z 01011KT 02/M03 A3026 RMK A01 T00181025  RH  073%=      5-min Rain = 0
KWT1 141343Z 01012KT 02/M03 A3026 RMK A01 T00191025  RH  073%=      5-min Rain = 0
KWT1 141344Z 01011KT 02/M03 A3026 RMK A01 T00191026  RH  072%=      5-min Rain = 0
KWT1 141345Z 01011KT 02/M03 A3026 RMK A01 T00201026  RH  072%=      5-min Rain = 0
KWT1 141346Z 01011KT 02/M03 A3026 RMK A01 T00201026  RH  072%=      5-min Rain = 0
KWT1 141347Z 01012KT 02/M03 A3026 RMK A01 T00201026  RH  072%=      5-min Rain = 0
KWT1 141348Z 01012KT 02/M03 A3026 RMK A01 T00201026  RH  071%=      5-min Rain = 0
KWT1 141349Z 01010KT 02/M03 A3026 RMK A01 T00211026  RH  071%=      5-min Rain = 0
KWT1 141350Z 01010KT 02/M03 A3027 RMK A01 T00211026  RH  071%=      5-min Rain = 0
KWT1 141351Z 01011KT 02/M03 A3027 RMK A01 T00211026  RH  071%=      5-min Rain = 0
KWT1 141352Z 01013KT 02/M03 A3027 RMK A01 T00211026  RH  071%=      5-min Rain = 0
KWT1 141353Z 01011KT 02/M03 A3027 RMK A01 T00221026  RH  070%=      5-min Rain = 0
KWT1 141354Z 02012KT 02/M03 A3027 RMK A01 T00221027  RH  070%=      5-min Rain = 0
KWT1 141355Z 02011KT 02/M03 A3027 RMK A01 T00231027  RH  070%=      5-min Rain = 0
KWT1 141356Z 02012KT 02/M03 A3027 RMK A01 T00231026  RH  070%=      5-min Rain = 0
KWT1 141357Z 02010KT 02/M03 A3027 RMK A01 T00231027  RH  070%=      5-min Rain = 0
KWT1 141358Z 02010G15KT 02/M03 A3027 RMK A01 T00231026  RH  070%=      5-min Rain = 0
KWT1 141359Z 02011KT 02/M03 A3027 RMK A01 T00231026  RH  070%=      5-min Rain = 0
KWT1 141400Z 01012KT 02/M03 A3027 RMK A01 T00241026  RH  070%=      5-min Rain = 0
KWT1 141401Z 02011KT 02/M03 A3027 RMK A01 T00241026  RH  069%=      5-min Rain = 0
KWT1 141402Z 02011KT 02/M03 A3027 RMK A01 T00241027  RH  069%=      5-min Rain = 0
KWT1 141403Z 02011KT 02/M03 A3027 RMK A01 T00241027  RH  069%=      5-min Rain = 0
KWT1 141404Z 02012KT 03/M03 A3027 RMK A01 T00251027  RH  069%=      5-min Rain = 0
KWT1 141405Z 02011KT 03/M03 A3027 RMK A01 T00251027  RH  069%=      5-min Rain = 0
KWT1 141406Z 02009KT 03/M03 A3027 RMK A01 T00251027  RH  068%=      5-min Rain = 0
KWT1 141407Z 02010KT 03/M03 A3027 RMK A01 T00261026  RH  069%=      5-min Rain = 0
KWT1 141408Z 02009KT 03/M03 A3028 RMK A01 T00261026  RH  069%=      5-min Rain = 0
KWT1 141409Z 02010KT 03/M03 A3028 RMK A01 T00261026  RH  069%=      5-min Rain = 0
KWT1 141410Z 03010KT 03/M03 A3028 RMK A01 T00271026  RH  068%=      5-min Rain = 0
KWT1 141411Z 02011KT 03/M03 A3028 RMK A01 T00271026  RH  068%=      5-min Rain = 0
KWT1 141412Z 02010KT 03/M03 A3028 RMK A01 T00271026  RH  068%=      5-min Rain = 0
KWT1 141413Z 02012G17KT 03/M03 A3028 RMK A01 T00271026  RH  068%=      5-min Rain = 0
KWT1 141414Z 02013KT 03/M03 A3028 RMK A01 T00281027  RH  067%=      5-min Rain = 0
KWT1 141415Z 02014KT 03/M03 A3028 RMK A01 T00281027  RH  067%=      5-min Rain = 0
KWT1 141416Z 02014KT 03/M03 A3028 RMK A01 T00291027  RH  067%=      5-min Rain = 0
KWT1 141417Z 02012KT 03/M03 A3028 RMK A01 T00291027  RH  067%=      5-min Rain = 0
KWT1 141418Z 02012KT 03/M03 A3028 RMK A01 T00291027  RH  067%=      5-min Rain = 0
KWT1 141419Z 02011KT 03/M03 A3029 RMK A01 T00301026  RH  067%=      5-min Rain = 0
KWT1 141420Z 01011KT 03/M03 A3029 RMK A01 T00311025  RH  067%=      5-min Rain = 0
KWT1 141421Z 01011KT 03/M03 A3029 RMK A01 T00311026  RH  066%=      5-min Rain = 0
KWT1 141422Z 01012KT 03/M03 A3029 RMK A01 T00321025  RH  066%=      5-min Rain = 0
KWT1 141423Z 02012KT 03/M03 A3029 RMK A01 T00321026  RH  065%=      5-min Rain = 0
KWT1 141424Z 02011KT 03/M03 A3029 RMK A01 T00331026  RH  065%=      5-min Rain = 0
KWT1 141425Z 02013KT 03/M03 A3029 RMK A01 T00331026  RH  065%=      5-min Rain = 0
KWT1 141426Z 02011KT 03/M03 A3029 RMK A01 T00341026  RH  065%=      5-min Rain = 0
KWT1 141427Z 02012KT 03/M03 A303 RMK A01 T00341026  RH  065%=      5-min Rain = 0
KWT1 141428Z 02013KT 03/M03 A303 RMK A01 T00341026  RH  064%=      5-min Rain = 0
KWT1 141429Z 02012KT 04/M03 A303 RMK A01 T00351027  RH  064%=      5-min Rain = 0
KWT1 141430Z 02012KT 04/M03 A303 RMK A01 T00351026  RH  064%=      5-min Rain = 0
KWT1 141431Z 02012KT 04/M03 A303 RMK A01 T00361026  RH  064%=      5-min Rain = 0
KWT1 141432Z 03010KT 04/M03 A303 RMK A01 T00361026  RH  064%=      5-min Rain = 0
KWT1 141433Z 02013KT 04/M02 A303 RMK A01 T00381024  RH  064%=      5-min Rain = 0
KWT1 141434Z 02011KT 04/M03 A303 RMK A01 T00391025  RH  063%=      5-min Rain = 0
KWT1 141435Z 02012KT 04/M03 A303 RMK A01 T00391026  RH  063%=      5-min Rain = 0
KWT1 141436Z 02012KT 04/M03 A303 RMK A01 T00391026  RH  062%=      5-min Rain = 0
KWT1 141437Z 02014KT 04/M03 A303 RMK A01 T00401027  RH  062%=      5-min Rain = 0
KWT1 141438Z 02012KT 04/M03 A303 RMK A01 T00411026  RH  062%=      5-min Rain = 0
KWT1 141439Z 02012KT 04/M03 A3031 RMK A01 T00421026  RH  061%=      5-min Rain = 0
KWT1 141440Z 02015KT 04/M03 A3031 RMK A01 T00421026  RH  061%=      5-min Rain = 0
KWT1 141441Z 02013KT 04/M03 A3031 RMK A01 T00431027  RH  060%=      5-min Rain = 0
KWT1 141442Z 02014KT 04/M03 A3031 RMK A01 T00431028  RH  060%=      5-min Rain = 0
KWT1 141443Z 02014KT 04/M03 A3031 RMK A01 T00441029  RH  059%=      5-min Rain = 0
KWT1 141444Z 03014KT 04/M03 A3031 RMK A01 T00441030  RH  059%=      5-min Rain = 0
KWT1 141445Z 03014KT 05/M03 A3031 RMK A01 T00451028  RH  059%=      5-min Rain = 0
KWT1 141446Z 02012KT 05/M03 A3031 RMK A01 T00461027  RH  059%=      5-min Rain = 0
KWT1 141447Z 03013KT 05/M03 A3031 RMK A01 T00461028  RH  059%=      5-min Rain = 0
KWT1 141448Z 03010KT 05/M03 A3031 RMK A01 T00471027  RH  058%=      5-min Rain = 0
KWT1 141449Z 02011KT 05/M02 A3031 RMK A01 T00491024  RH  059%=      5-min Rain = 0
KWT1 141450Z 02014G19KT 05/M03 A3032 RMK A01 T00501027  RH  058%=      5-min Rain = 0
KWT1 141451Z 02014KT 05/M03 A3032 RMK A01 T00491029  RH  057%=      5-min Rain = 0
KWT1 141452Z 02011KT 05/M03 A3032 RMK A01 T00491029  RH  057%=      5-min Rain = 0
KWT1 141453Z 02014KT 05/M03 A3032 RMK A01 T00501028  RH  057%=      5-min Rain = 0
KWT1 141454Z 02013KT 05/M03 A3032 RMK A01 T00501029  RH  057%=      5-min Rain = 0
KWT1 141455Z 02011KT 05/M03 A3032 RMK A01 T00501029  RH  057%=      5-min Rain = 0
KWT1 141456Z 03013KT 05/M03 A3032 RMK A01 T00511027  RH  057%=      5-min Rain = 0
KWT1 141457Z 03010KT 05/M03 A3032 RMK A01 T00511028  RH  057%=      5-min Rain = 0
KWT1 141458Z 02010KT 05/M03 A3032 RMK A01 T00521027  RH  056%=      5-min Rain = 0
KWT1 141459Z 02012KT 05/M03 A3032 RMK A01 T00531028  RH  056%=      5-min Rain = 0
KWT1 141500Z 02009G14KT 05/M03 A3032 RMK A01 T00531028  RH  056%=      5-min Rain = 0
KWT1 141501Z 03010KT 06/M03 A3032 RMK A01 T00551027  RH  056%=      5-min Rain = 0
KWT1 141502Z 02014KT 06/M03 A3033 RMK A01 T00561028  RH  055%=      5-min Rain = 0
KWT1 141503Z 02016KT 06/M03 A3033 RMK A01 T00571031  RH  053%=      5-min Rain = 0
KWT1 141504Z 02015KT 06/M03 A3033 RMK A01 T00551033  RH  053%=      5-min Rain = 0
KWT1 141505Z 02014KT 06/M03 A3033 RMK A01 T00551033  RH  053%=      5-min Rain = 0
KWT1 141506Z 03012KT 06/M03 A3033 RMK A01 T00551032  RH  053%=      5-min Rain = 0
KWT1 141507Z 03011KT 06/M03 A3033 RMK A01 T00571030  RH  053%=      5-min Rain = 0
KWT1 141508Z 03013KT 06/M03 A3033 RMK A01 T00591030  RH  053%=      5-min Rain = 0
KWT1 141509Z 02015KT 06/M03 A3033 RMK A01 T00591031  RH  052%=      5-min Rain = 0
KWT1 141510Z 03014KT 06/M03 A3033 RMK A01 T00591034  RH  052%=      5-min Rain = 0
KWT1 141511Z 03011G18KT 06/M03 A3033 RMK A01 T00581033  RH  052%=      5-min Rain = 0
KWT1 141512Z 03016KT 06/M03 A3033 RMK A01 T00601031  RH  052%=      5-min Rain = 0
KWT1 141513Z 03014KT 06/M03 A3033 RMK A01 T00601033  RH  051%=      5-min Rain = 0
KWT1 141514Z 02012KT 06/M03 A3033 RMK A01 T00591032  RH  052%=      5-min Rain = 0
KWT1 141515Z 03013KT 06/M03 A3033 RMK A01 T00601031  RH  052%=      5-min Rain = 0
KWT1 141516Z 02012G17KT 06/M03 A3033 RMK A01 T00601032  RH  052%=      5-min Rain = 0
KWT1 141517Z 02013KT 06/M03 A3033 RMK A01 T00611031  RH  052%=      5-min Rain = 0
KWT1 141518Z 03012G18KT 06/M03 A3033 RMK A01 T00611031  RH  051%=      5-min Rain = 0
KWT1 141519Z 03015KT 06/M03 A3033 RMK A01 T00621031  RH  051%=      5-min Rain = 0
KWT1 141520Z 02014KT 06/M03 A3033 RMK A01 T00621032  RH  051%=      5-min Rain = 0
KWT1 141521Z 03014KT 06/M03 A3034 RMK A01 T00611033  RH  051%=      5-min Rain = 0
KWT1 141522Z 02016G22KT 06/M03 A3034 RMK A01 T00611033  RH  051%=      5-min Rain = 0
KWT1 141523Z 02017KT 06/M03 A3034 RMK A01 T00611034  RH  050%=      5-min Rain = 0
KWT1 141524Z 02015KT 06/M04 A3033 RMK A01 T00611035  RH  050%=      5-min Rain = 0
KWT1 141525Z 02017KT 06/M04 A3034 RMK A01 T00611035  RH  050%=      5-min Rain = 0
KWT1 141526Z 02017KT 06/M04 A3034 RMK A01 T00611035  RH  050%=      5-min Rain = 0
KWT1 141527Z 02014KT 06/M04 A3033 RMK A01 T00601035  RH  050%=      5-min Rain = 0
KWT1 141528Z 02012KT 06/M03 A3033 RMK A01 T00611033  RH  051%=      5-min Rain = 0
KWT1 141529Z 02012G18KT 06/M03 A3034 RMK A01 T00641030  RH  051%=      5-min Rain = 0
KWT1 141530Z 03017KT 07/M03 A3034 RMK A01 T00651032  RH  050%=      5-min Rain = 0
KWT1 141531Z 03014G20KT 06/M04 A3034 RMK A01 T00641035  RH  049%=      5-min Rain = 0
KWT1 141532Z 03015G20KT 07/M03 A3034 RMK A01 T00651033  RH  050%=      5-min Rain = 0
KWT1 141533Z 02015KT 07/M03 A3034 RMK A01 T00661034  RH  049%=      5-min Rain = 0
KWT1 141534Z 02015KT 07/M04 A3034 RMK A01 T00661035  RH  049%=      5-min Rain = 0
KWT1 141535Z 02015KT 07/M04 A3034 RMK A01 T00661035  RH  048%=      5-min Rain = 0
KWT1 141536Z 02016KT 07/M03 A3034 RMK A01 T00661034  RH  049%=      5-min Rain = 0
KWT1 141537Z 02015KT 07/M04 A3034 RMK A01 T00671035  RH  048%=      5-min Rain = 0
KWT1 141538Z 03016KT 07/M04 A3034 RMK A01 T00671036  RH  048%=      5-min Rain = 0
KWT1 141539Z 02014KT 07/M04 A3034 RMK A01 T00681035  RH  048%=      5-min Rain = 0
KWT1 141540Z 03012KT 07/M03 A3034 RMK A01 T00691033  RH  048%=      5-min Rain = 0
KWT1 141541Z 03011G16KT 07/M03 A3034 RMK A01 T00701032  RH  048%=      5-min Rain = 0
KWT1 141542Z 03011G16KT 07/M03 A3034 RMK A01 T00731030  RH  048%=      5-min Rain = 0
KWT1 141543Z 02016KT 07/M03 A3034 RMK A01 T00741034  RH  046%=      5-min Rain = 0
KWT1 141544Z 03014KT 07/M04 A3035 RMK A01 T00731036  RH  046%=      5-min Rain = 0
KWT1 141545Z 03015KT 07/M04 A3035 RMK A01 T00721036  RH  046%=      5-min Rain = 0
KWT1 141546Z 04013G18KT 07/M04 A3035 RMK A01 T00731035  RH  046%=      5-min Rain = 0
KWT1 141547Z 03013KT 07/M04 A3035 RMK A01 T00731035  RH  046%=      5-min Rain = 0
KWT1 141548Z 04016G21KT 07/M04 A3035 RMK A01 T00741035  RH  046%=      5-min Rain = 0
KWT1 141549Z 03014KT 08/M04 A3035 RMK A01 T00751037  RH  045%=      5-min Rain = 0
KWT1 141550Z 03016KT 08/M04 A3035 RMK A01 T00751038  RH  045%=      5-min Rain = 0
KWT1 141551Z 04015KT 07/M04 A3035 RMK A01 T00741039  RH  045%=      5-min Rain = 0
KWT1 141552Z 03017KT 08/M04 A3035 RMK A01 T00751037  RH  045%=      5-min Rain = 0
KWT1 141553Z 03018KT 08/M04 A3035 RMK A01 T00751040  RH  044%=      5-min Rain = 0
KWT1 141554Z 03018KT 08/M04 A3035 RMK A01 T00751041  RH  044%=      5-min Rain = 0
KWT1 141555Z 03016KT 07/M04 A3035 RMK A01 T00741041  RH  044%=      5-min Rain = 0
KWT1 141556Z 03016KT 08/M04 A3035 RMK A01 T00761038  RH  044%=      5-min Rain = 0
KWT1 141557Z 03013KT 08/M04 A3035 RMK A01 T00781037  RH  044%=      5-min Rain = 0
KWT1 141558Z 03015KT 08/M04 A3035 RMK A01 T00791036  RH  044%=      5-min Rain = 0
KWT1 141559Z 04013KT 08/M04 A3035 RMK A01 T00791037  RH  044%=      5-min Rain = 0
KWT1 141600Z 03013KT 08/M04 A3035 RMK A01 T00791036  RH  044%=      5-min Rain = 0
KWT1 141601Z 03011KT 08/M04 A3036 RMK A01 T00811036  RH  043%=      5-min Rain = 0
KWT1 141602Z 04016KT 08/M04 A3036 RMK A01 T00821035  RH  043%=      5-min Rain = 0
KWT1 141603Z 03013KT 08/M04 A3036 RMK A01 T00811039  RH  042%=      5-min Rain = 0
KWT1 141604Z 04012KT 08/M04 A3036 RMK A01 T00821037  RH  043%=      5-min Rain = 0
KWT1 141605Z 03014KT 08/M03 A3036 RMK A01 T00841034  RH  043%=      5-min Rain = 0
KWT1 141606Z 03015KT 08/M04 A3036 RMK A01 T00841037  RH  042%=      5-min Rain = 0
KWT1 141607Z 04017KT 08/M04 A3036 RMK A01 T00831037  RH  042%=      5-min Rain = 0
KWT1 141608Z 03019KT 08/M04 A3036 RMK A01 T00821041  RH  042%=      5-min Rain = 0
KWT1 141609Z 03015KT 08/M04 A3036 RMK A01 T00801041  RH  042%=      5-min Rain = 0
KWT1 141610Z 03017KT 08/M04 A3036 RMK A01 T00801038  RH  043%=      5-min Rain = 0
KWT1 141611Z 03018G23KT 08/M04 A3036 RMK A01 T00801040  RH  043%=      5-min Rain = 0
KWT1 141612Z 03017KT 08/M04 A3036 RMK A01 T00801040  RH  043%=      5-min Rain = 0
KWT1 141613Z 03020KT 08/M04 A3036 RMK A01 T00801039  RH  043%=      5-min Rain = 0
KWT1 141614Z 04019KT 08/M04 A3036 RMK A01 T00791040  RH  043%=      5-min Rain = 0
KWT1 141615Z 04016KT 08/M04 A3037 RMK A01 T00781038  RH  044%=      5-min Rain = 0
KWT1 141616Z 03014KT 08/M04 A3037 RMK A01 T00791035  RH  044%=      5-min Rain = 0
KWT1 141617Z 04014KT 08/M03 A3037 RMK A01 T00821033  RH  044%=      5-min Rain = 0
KWT1 141618Z 03017KT 08/M03 A3037 RMK A01 T00821033  RH  044%=      5-min Rain = 0
KWT1 141619Z 04014KT 08/M03 A3037 RMK A01 T00821033  RH  044%=      5-min Rain = 0
KWT1 141620Z 05015KT 08/M03 A3037 RMK A01 T00831031  RH  044%=      5-min Rain = 0
KWT1 141621Z 03014G19KT 08/M03 A3037 RMK A01 T00831032  RH  044%=      5-min Rain = 0
KWT1 141622Z 03017KT 08/M03 A3037 RMK A01 T00821032  RH  044%=      5-min Rain = 0
KWT1 141623Z 03018KT 08/M03 A3037 RMK A01 T00821032  RH  044%=      5-min Rain = 0
KWT1 141624Z 04015KT 08/M03 A3037 RMK A01 T00801033  RH  045%=      5-min Rain = 0
KWT1 141625Z 04015KT 08/M03 A3037 RMK A01 T00801030  RH  046%=      5-min Rain = 0
KWT1 141626Z 05016KT 08/M03 A3037 RMK A01 T00821029  RH  046%=      5-min Rain = 0
KWT1 141627Z 04015KT 08/M03 A3037 RMK A01 T00831029  RH  045%=      5-min Rain = 0
KWT1 141628Z 05017KT 08/M03 A3037 RMK A01 T00821029  RH  045%=      5-min Rain = 0
KWT1 141629Z 05014KT 08/M03 A3037 RMK A01 T00831028  RH  045%=      5-min Rain = 0
KWT1 141630Z 05014KT 08/M03 A3037 RMK A01 T00831028  RH  045%=      5-min Rain = 0
KWT1 141631Z 05014KT 08/M03 A3037 RMK A01 T00831026  RH  046%=      5-min Rain = 0
KWT1 141632Z 04017G22KT 08/M03 A3037 RMK A01 T00841025  RH  046%=      5-min Rain = 0
KWT1 141633Z 05016KT 08/M02 A3037 RMK A01 T00841022  RH  047%=      5-min Rain = 0
KWT1 141634Z 05016KT 09/M02 A3037 RMK A01 T00851019  RH  048%=      5-min Rain = 0
KWT1 141635Z 03013G20KT 09/M02 A3037 RMK A01 T00861015  RH  049%=      5-min Rain = 0
KWT1 141636Z 04018KT 09/M01 A3037 RMK A01 T00891012  RH  049%=      5-min Rain = 0
KWT1 141637Z 05013KT 09/M01 A3037 RMK A01 T00891012  RH  049%=      5-min Rain = 0
KWT1 141638Z 03013KT 09/M01 A3037 RMK A01 T00901010  RH  050%=      5-min Rain = 0
KWT1 141639Z 04015KT 09/M01 A3038 RMK A01 T00921008  RH  050%=      5-min Rain = 0
KWT1 141640Z 04017KT 09/M01 A3038 RMK A01 T00901010  RH  049%=      5-min Rain = 0
KWT1 141641Z 04014KT 09/M01 A3038 RMK A01 T00871011  RH  050%=      5-min Rain = 0
KWT1 141642Z 04015KT 09/M01 A3038 RMK A01 T00871010  RH  051%=      5-min Rain = 0
KWT1 141643Z 05017KT 09/M01 A3038 RMK A01 T00881007  RH  051%=      5-min Rain = 0
KWT1 141644Z 04014KT 09/M01 A3038 RMK A01 T00891008  RH  051%=      5-min Rain = 0
KWT1 141645Z 03016KT 09/M01 A3038 RMK A01 T00891008  RH  051%=      5-min Rain = 0
KWT1 141646Z 04013G20KT 09/M01 A3038 RMK A01 T00891007  RH  051%=      5-min Rain = 0
KWT1 141647Z 04015KT 09/M01 A3038 RMK A01 T00911007  RH  051%=      5-min Rain = 0
KWT1 141648Z 05014G19KT 09/M01 A3038 RMK A01 T00901007  RH  051%=      5-min Rain = 0
KWT1 141649Z 06014KT 09/M01 A3038 RMK A01 T00901007  RH  051%=      5-min Rain = 0
KWT1 141650Z 06016KT 09/M01 A3038 RMK A01 T00901007  RH  051%=      5-min Rain = 0
KWT1 141651Z 04015KT 09/M01 A3038 RMK A01 T00901006  RH  051%=      5-min Rain = 0
KWT1 141652Z 04014G19KT 09/M01 A3038 RMK A01 T00911005  RH  051%=      5-min Rain = 0
KWT1 141653Z 03016KT 09/M01 A3038 RMK A01 T00911007  RH  050%=      5-min Rain = 0
KWT1 141654Z 04011G16KT 09/M01 A3038 RMK A01 T00901006  RH  051%=      5-min Rain = 0
KWT1 141655Z 03015KT 09/M00 A3038 RMK A01 T00931003  RH  051%=      5-min Rain = 0
KWT1 141656Z 04012KT 09/M00 A3038 RMK A01 T00941004  RH  050%=      5-min Rain = 0
KWT1 141657Z 05013G19KT 09/M00 A3038 RMK A01 T00941004  RH  051%=      5-min Rain = 0
KWT1 141658Z 04015KT 09/M00 A3038 RMK A01 T00941003  RH  050%=      5-min Rain = 0
KWT1 141659Z 04016KT 10/M00 A3038 RMK A01 T00951004  RH  050%=      5-min Rain = 0
KWT1 141700Z 04016KT 09/M01 A3038 RMK A01 T00941005  RH  050%=      5-min Rain = 0
KWT1 141701Z 04015G22KT 09/M01 A3038 RMK A01 T00921005  RH  050%=      5-min Rain = 0
KWT1 141702Z 04018KT 09/M00 A3038 RMK A01 T00921004  RH  051%=      5-min Rain = 0
KWT1 141703Z 05018KT 09/M00 A3038 RMK A01 T00931004  RH  051%=      5-min Rain = 0
KWT1 141704Z 05018KT 09/M00 A3038 RMK A01 T00931004  RH  051%=      5-min Rain = 0
KWT1 141705Z 05015KT 09/M00 A3038 RMK A01 T00931003  RH  051%=      5-min Rain = 0
KWT1 141706Z 05018KT 10/M00 A3038 RMK A01 T00951001  RH  051%=      5-min Rain = 0
KWT1 141707Z 05015KT 10/M00 A3038 RMK A01 T00951002  RH  051%=      5-min Rain = 0
KWT1 141708Z 04012KT 10/M00 A3038 RMK A01 T00951001  RH  051%=      5-min Rain = 0
KWT1 141709Z 05014G20KT 10/00 A3038 RMK A01 T00990002  RH  051%=      5-min Rain = 0
KWT1 141710Z 04017KT 10/00 A3038 RMK A01 T00990000  RH  050%=      5-min Rain = 0
KWT1 141711Z 04016KT 10/M00 A3038 RMK A01 T00961003  RH  050%=      5-min Rain = 0
KWT1 141712Z 04014KT 10/M00 A3038 RMK A01 T00961001  RH  051%=      5-min Rain = 0
KWT1 141713Z 05015KT 10/00 A3038 RMK A01 T00990003  RH  051%=      5-min Rain = 0
KWT1 141714Z 05017KT 10/00 A3038 RMK A01 T01010003  RH  050%=      5-min Rain = 0
KWT1 141715Z 04016KT 10/00 A3038 RMK A01 T01010001  RH  050%=      5-min Rain = 0
KWT1 141716Z 04017KT 10/00 A3038 RMK A01 T00990000  RH  050%=      5-min Rain = 0
KWT1 141717Z 04018KT 10/00 A3038 RMK A01 T00970000  RH  051%=      5-min Rain = 0
KWT1 141718Z 05019G24KT 10/00 A3038 RMK A01 T00970000  RH  051%=      5-min Rain = 0
KWT1 141719Z 04018KT 10/M00 A3038 RMK A01 T00951002  RH  051%=      5-min Rain = 0
KWT1 141720Z 05018G23KT 09/00 A3038 RMK A01 T009400-0  RH  052%=      5-min Rain = 0
KWT1 141721Z 04018KT 10/00 A3039 RMK A01 T009600-0  RH  051%=      5-min Rain = 0
KWT1 141722Z 03017KT 10/M00 A3039 RMK A01 T00961001  RH  051%=      5-min Rain = 0
KWT1 141723Z 03016G22KT 10/M00 A3039 RMK A01 T00961001  RH  051%=      5-min Rain = 0
KWT1 141724Z 03017KT 10/M00 A3039 RMK A01 T00961001  RH  051%=      5-min Rain = 0
KWT1 141725Z 03018G23KT 10/M00 A3039 RMK A01 T00961001  RH  051%=      5-min Rain = 0
KWT1 141726Z 04019G24KT 10/M00 A3039 RMK A01 T00961002  RH  050%=      5-min Rain = 0
KWT1 141727Z 04016KT 10/M00 A3039 RMK A01 T00961001  RH  051%=      5-min Rain = 0
KWT1 141728Z 03016KT 10/00 A3039 RMK A01 T009700-0  RH  051%=      5-min Rain = 0
KWT1 141729Z 03019KT 10/00 A3039 RMK A01 T009800-0  RH  050%=      5-min Rain = 0
KWT1 141730Z 03018KT 10/M00 A3039 RMK A01 T00971002  RH  050%=      5-min Rain = 0
KWT1 141731Z 05016KT 10/M00 A3039 RMK A01 T00951001  RH  051%=      5-min Rain = 0
KWT1 141732Z 03014G19KT 10/00 A3039 RMK A01 T00960000  RH  051%=      5-min Rain = 0
KWT1 141733Z 05017G24KT 10/00 A3039 RMK A01 T00980001  RH  051%=      5-min Rain = 0
KWT1 141734Z 05019KT 10/M00 A3039 RMK A01 T00981001  RH  050%=      5-min Rain = 0
KWT1 141735Z 04018KT 10/M00 A3039 RMK A01 T00971002  RH  050%=      5-min Rain = 0
KWT1 141736Z 05016KT 10/M00 A3039 RMK A01 T00951003  RH  050%=      5-min Rain = 0
KWT1 141737Z 05016KT 10/M00 A3039 RMK A01 T00961001  RH  051%=      5-min Rain = 0
KWT1 141738Z 04014KT 10/00 A3039 RMK A01 T009800-0  RH  050%=      5-min Rain = 0
KWT1 141739Z 04016KT 10/00 A3039 RMK A01 T00980000  RH  050%=      5-min Rain = 0
KWT1 141740Z 06018KT 10/M00 A3038 RMK A01 T00991001  RH  050%=      5-min Rain = 0
KWT1 141741Z 06016KT 10/M00 A3038 RMK A01 T00981002  RH  050%=      5-min Rain = 0
KWT1 141742Z 06015KT 10/M00 A3038 RMK A01 T00981001  RH  050%=      5-min Rain = 0
KWT1 141743Z 05014KT 10/00 A3039 RMK A01 T01000001  RH  050%=      5-min Rain = 0
KWT1 141744Z 06015KT 10/00 A3038 RMK A01 T01010000  RH  049%=      5-min Rain = 0
KWT1 141745Z 06016KT 10/M00 A3038 RMK A01 T01011001  RH  049%=      5-min Rain = 0
KWT1 141746Z 06018G23KT 10/M00 A3038 RMK A01 T01001001  RH  049%=      5-min Rain = 0
KWT1 141747Z 06019KT 10/M00 A3038 RMK A01 T00991002  RH  049%=      5-min Rain = 0
KWT1 141748Z 06013KT 10/M00 A3038 RMK A01 T00971001  RH  050%=      5-min Rain = 0
KWT1 141749Z 04017KT 10/00 A3038 RMK A01 T00990001  RH  050%=      5-min Rain = 0
KWT1 141750Z 03016KT 10/00 A3038 RMK A01 T01010000  RH  050%=      5-min Rain = 0
KWT1 141751Z 03014KT 10/00 A3038 RMK A01 T01020001  RH  049%=      5-min Rain = 0
KWT1 141752Z 04012G17KT 10/00 A3038 RMK A01 T01030001  RH  049%=      5-min Rain = 0
KWT1 141753Z 04016KT 11/00 A3038 RMK A01 T01060004  RH  049%=      5-min Rain = 0
KWT1 141754Z 03016KT 11/00 A3038 RMK A01 T010500-0  RH  048%=      5-min Rain = 0
KWT1 141755Z 04017KT 10/00 A3038 RMK A01 T010200-0  RH  049%=      5-min Rain = 0
KWT1 141756Z 04016G21KT 10/00 A3038 RMK A01 T01020001  RH  050%=      5-min Rain = 0
KWT1 141757Z 03016KT 10/00 A3038 RMK A01 T01020001  RH  049%=      5-min Rain = 0
KWT1 141758Z 03017KT 10/00 A3038 RMK A01 T01010001  RH  050%=      5-min Rain = 0
KWT1 141759Z 02015KT 10/00 A3038 RMK A01 T01010001  RH  050%=      5-min Rain = 0
KWT1 141800Z 03013KT 10/00 A3038 RMK A01 T01010001  RH  050%=      5-min Rain = 0
KWT1 141801Z 04011G19KT 10/00 A3038 RMK A01 T01010003  RH  051%=      5-min Rain = 0
KWT1 141802Z 05019KT 11/00 A3038 RMK A01 T01060004  RH  049%=      5-min Rain = 0
KWT1 141803Z 06016KT 11/00 A3038 RMK A01 T01060001  RH  048%=      5-min Rain = 0
KWT1 141804Z 04018KT 11/00 A3038 RMK A01 T010600-0  RH  048%=      5-min Rain = 0
KWT1 141805Z 04014KT 11/00 A3038 RMK A01 T01050000  RH  048%=      5-min Rain = 0
KWT1 141806Z 06017KT 11/00 A3038 RMK A01 T01050001  RH  049%=      5-min Rain = 0
KWT1 141807Z 06016KT 11/00 A3038 RMK A01 T01060002  RH  049%=      5-min Rain = 0
KWT1 141808Z 06014KT 11/00 A3038 RMK A01 T01060002  RH  049%=      5-min Rain = 0
KWT1 141809Z 05015KT 11/00 A3038 RMK A01 T01060003  RH  049%=      5-min Rain = 0
KWT1 141810Z 05016KT 11/00 A3038 RMK A01 T01050002  RH  049%=      5-min Rain = 0
KWT1 141811Z 05016KT 11/00 A3038 RMK A01 T01050002  RH  049%=      5-min Rain = 0
KWT1 141812Z 05015KT 11/00 A3038 RMK A01 T01050002  RH  049%=      5-min Rain = 0
KWT1 141813Z 05015KT 10/00 A3038 RMK A01 T01040003  RH  049%=      5-min Rain = 0
KWT1 141814Z 05015G20KT 11/00 A3038 RMK A01 T01050002  RH  049%=      5-min Rain = 0
KWT1 141815Z 03019G24KT 10/00 A3037 RMK A01 T01040000  RH  049%=      5-min Rain = 0
KWT1 141816Z 04013G18KT 11/00 A3037 RMK A01 T01050003  RH  049%=      5-min Rain = 0
KWT1 141817Z 04014G20KT 11/01 A3037 RMK A01 T01090005  RH  049%=      5-min Rain = 0
KWT1 141818Z 03015KT 11/00 A3037 RMK A01 T01110003  RH  047%=      5-min Rain = 0
KWT1 141819Z 03016KT 11/00 A3037 RMK A01 T01090000  RH  047%=      5-min Rain = 0
KWT1 141820Z 03019KT 11/00 A3037 RMK A01 T010700-0  RH  047%=      5-min Rain = 0
KWT1 141821Z 03015KT 11/M00 A3037 RMK A01 T01051001  RH  048%=      5-min Rain = 0
KWT1 141822Z 03011KT 10/00 A3037 RMK A01 T010400-0  RH  048%=      5-min Rain = 0
KWT1 141823Z 04014KT 11/00 A3037 RMK A01 T01050002  RH  049%=      5-min Rain = 0
KWT1 141824Z 05017KT 11/00 A3037 RMK A01 T01080002  RH  048%=      5-min Rain = 0
KWT1 141825Z 05015KT 11/00 A3037 RMK A01 T01080001  RH  048%=      5-min Rain = 0
KWT1 141826Z 03016KT 11/00 A3037 RMK A01 T01080001  RH  048%=      5-min Rain = 0
KWT1 141827Z 03018G23KT 11/00 A3037 RMK A01 T01110000  RH  046%=      5-min Rain = 0
KWT1 141828Z 04017KT 11/M00 A3037 RMK A01 T01101003  RH  046%=      5-min Rain = 0
KWT1 141829Z 03017G25KT 11/M00 A3037 RMK A01 T01091003  RH  046%=      5-min Rain = 0
KWT1 141830Z 02018G24KT 11/M01 A3037 RMK A01 T01101006  RH  045%=      5-min Rain = 0
KWT1 141831Z 03018KT 11/M01 A3037 RMK A01 T01101005  RH  045%=      5-min Rain = 0
KWT1 141832Z 04015G20KT 11/M00 A3037 RMK A01 T01101004  RH  045%=      5-min Rain = 0
KWT1 141833Z 03017KT 11/M00 A3037 RMK A01 T01111004  RH  045%=      5-min Rain = 0
KWT1 141834Z 03015KT 11/M00 A3037 RMK A01 T01111004  RH  045%=      5-min Rain = 0
KWT1 141835Z 04015G20KT 11/M00 A3037 RMK A01 T01111003  RH  045%=      5-min Rain = 0
KWT1 141836Z 04017G23KT 11/M00 A3037 RMK A01 T01111003  RH  045%=      5-min Rain = 0
KWT1 141837Z 04016G21KT 11/M00 A3037 RMK A01 T01121003  RH  045%=      5-min Rain = 0
KWT1 141838Z 03016G21KT 11/M00 A3037 RMK A01 T01111004  RH  045%=      5-min Rain = 0
KWT1 141839Z 03019KT 11/M00 A3037 RMK A01 T01111004  RH  045%=      5-min Rain = 0
KWT1 141840Z 02018KT 11/M01 A3037 RMK A01 T01101005  RH  045%=      5-min Rain = 0
KWT1 141841Z 03018KT 11/M01 A3037 RMK A01 T01101006  RH  045%=      5-min Rain = 0
KWT1 141842Z 02018KT 11/M01 A3037 RMK A01 T01081006  RH  045%=      5-min Rain = 0
KWT1 141843Z 03016KT 11/M00 A3037 RMK A01 T01071004  RH  046%=      5-min Rain = 0
KWT1 141844Z 03015KT 11/M00 A3037 RMK A01 T01081004  RH  046%=      5-min Rain = 0
KWT1 141845Z 03016KT 11/M00 A3037 RMK A01 T01091003  RH  046%=      5-min Rain = 0
KWT1 141846Z 03015G20KT 11/M00 A3037 RMK A01 T01101001  RH  046%=      5-min Rain = 0
KWT1 141847Z 03016G21KT 11/M00 A3037 RMK A01 T01111001  RH  046%=      5-min Rain = 0
KWT1 141848Z 03016KT 11/M00 A3037 RMK A01 T01111002  RH  046%=      5-min Rain = 0
KWT1 141849Z 03012KT 11/M00 A3037 RMK A01 T01111004  RH  045%=      5-min Rain = 0
KWT1 141850Z 03017KT 11/M00 A3037 RMK A01 T01121004  RH  045%=      5-min Rain = 0
KWT1 141851Z 03017G22KT 11/M00 A3036 RMK A01 T01101004  RH  045%=      5-min Rain = 0
KWT1 141852Z 04015KT 11/M00 A3037 RMK A01 T01101003  RH  045%=      5-min Rain = 0
KWT1 141853Z 05014KT 11/M00 A3036 RMK A01 T01111002  RH  045%=      5-min Rain = 0
KWT1 141854Z 04014KT 11/M00 A3037 RMK A01 T01141001  RH  045%=      5-min Rain = 0
KWT1 141855Z 05015KT 12/M00 A3037 RMK A01 T01151002  RH  044%=      5-min Rain = 0
KWT1 141856Z 03014KT 11/M00 A3036 RMK A01 T01121003  RH  045%=      5-min Rain = 0
KWT1 141857Z 04014KT 11/M00 A3036 RMK A01 T01121002  RH  045%=      5-min Rain = 0
KWT1 141858Z 05017G27KT 11/M00 A3036 RMK A01 T01121002  RH  045%=      5-min Rain = 0
KWT1 141859Z 04017KT 11/M00 A3036 RMK A01 T01131002  RH  045%=      5-min Rain = 0
KWT1 141900Z 04017G22KT 11/M00 A3036 RMK A01 T01141002  RH  045%=      5-min Rain = 0
KWT1 141901Z 05016G21KT 11/M00 A3036 RMK A01 T01141002  RH  045%=      5-min Rain = 0
KWT1 141902Z 04013G19KT 12/M00 A3036 RMK A01 T01161001  RH  045%=      5-min Rain = 0
KWT1 141903Z 04015KT 12/M00 A3036 RMK A01 T01181001  RH  044%=      5-min Rain = 0
KWT1 141904Z 04015G21KT 12/00 A3036 RMK A01 T011800-0  RH  044%=      5-min Rain = 0
KWT1 141905Z 04017KT 12/M00 A3036 RMK A01 T01161003  RH  044%=      5-min Rain = 0
KWT1 141906Z 04016KT 11/M01 A3036 RMK A01 T01121005  RH  044%=      5-min Rain = 0
KWT1 141907Z 04017KT 11/M00 A3036 RMK A01 T01111003  RH  045%=      5-min Rain = 0
KWT1 141908Z 04016G21KT 11/M00 A3036 RMK A01 T01131001  RH  045%=      5-min Rain = 0
KWT1 141909Z 04015KT 11/M00 A3036 RMK A01 T01141001  RH  045%=      5-min Rain = 0
KWT1 141910Z 04013KT 11/M00 A3036 RMK A01 T01131003  RH  045%=      5-min Rain = 0
KWT1 141911Z 04014KT 11/M00 A3036 RMK A01 T01141002  RH  045%=      5-min Rain = 0
KWT1 141912Z 04016KT 12/M00 A3036 RMK A01 T01151003  RH  044%=      5-min Rain = 0
KWT1 141913Z 04016KT 12/M00 A3036 RMK A01 T01151004  RH  044%=      5-min Rain = 0
KWT1 141914Z 04015KT 11/M00 A3036 RMK A01 T01141004  RH  044%=      5-min Rain = 0
KWT1 141915Z 03013KT 11/M00 A3036 RMK A01 T01131004  RH  044%=      5-min Rain = 0
KWT1 141916Z 03015G20KT 11/M00 A3036 RMK A01 T01131003  RH  045%=      5-min Rain = 0
KWT1 141917Z 03013KT 11/M00 A3036 RMK A01 T01131004  RH  044%=      5-min Rain = 0
KWT1 141918Z 04014KT 11/M00 A3036 RMK A01 T01131003  RH  045%=      5-min Rain = 0
KWT1 141919Z 04013KT 11/M00 A3036 RMK A01 T01131002  RH  045%=      5-min Rain = 0
KWT1 141920Z 04012G18KT 11/M00 A3036 RMK A01 T01141001  RH  045%=      5-min Rain = 0
KWT1 141921Z 06014KT 12/M00 A3036 RMK A01 T01161001  RH  044%=      5-min Rain = 0
KWT1 141922Z 06016KT 12/M00 A3036 RMK A01 T01151002  RH  044%=      5-min Rain = 0
KWT1 141923Z 04015KT 12/M00 A3036 RMK A01 T01161001  RH  045%=      5-min Rain = 0
KWT1 141924Z 04018KT 12/M00 A3036 RMK A01 T01171001  RH  044%=      5-min Rain = 0
KWT1 141925Z 03015KT 12/M00 A3036 RMK A01 T01151003  RH  044%=      5-min Rain = 0
KWT1 141926Z 04012KT 12/M00 A3036 RMK A01 T01151002  RH  044%=      5-min Rain = 0
KWT1 141927Z 03013KT 12/M00 A3036 RMK A01 T01151001  RH  045%=      5-min Rain = 0
KWT1 141928Z 03011G16KT 12/M00 A3036 RMK A01 T01161002  RH  044%=      5-min Rain = 0
KWT1 141929Z 02015KT 12/M00 A3036 RMK A01 T01171002  RH  044%=      5-min Rain = 0
KWT1 141930Z 02017KT 12/M00 A3035 RMK A01 T01181001  RH  044%=      5-min Rain = 0
KWT1 141931Z 04016KT 12/M00 A3035 RMK A01 T01171002  RH  044%=      5-min Rain = 0
KWT1 141932Z 05015KT 12/M00 A3035 RMK A01 T01161001  RH  044%=      5-min Rain = 0
KWT1 141933Z 04012KT 12/00 A3035 RMK A01 T01170000  RH  045%=      5-min Rain = 0
KWT1 141934Z 04014KT 12/M00 A3035 RMK A01 T01171001  RH  044%=      5-min Rain = 0
KWT1 141935Z 04014KT 12/M00 A3035 RMK A01 T01161001  RH  044%=      5-min Rain = 0
KWT1 141936Z 05014KT 12/M00 A3035 RMK A01 T01151002  RH  044%=      5-min Rain = 0
KWT1 141937Z 03012KT 12/M00 A3035 RMK A01 T01151001  RH  045%=      5-min Rain = 0
KWT1 141938Z 03015KT 12/00 A3035 RMK A01 T011800-0  RH  044%=      5-min Rain = 0
KWT1 141939Z 03013KT 12/M00 A3035 RMK A01 T01181002  RH  043%=      5-min Rain = 0
KWT1 141940Z 03013G19KT 12/00 A3035 RMK A01 T011800-0  RH  044%=      5-min Rain = 0
KWT1 141941Z 04014KT 12/M00 A3035 RMK A01 T01191004  RH  043%=      5-min Rain = 0
KWT1 141942Z 05013KT 12/M01 A3035 RMK A01 T01161005  RH  043%=      5-min Rain = 0
KWT1 141943Z 05008KT 12/M00 A3035 RMK A01 T01161002  RH  044%=      5-min Rain = 0
KWT1 141944Z 05011KT 12/00 A3035 RMK A01 T01200000  RH  044%=      5-min Rain = 0
KWT1 141945Z 03014KT 12/00 A3035 RMK A01 T012200-0  RH  043%=      5-min Rain = 0
KWT1 141946Z 03015KT 12/M00 A3035 RMK A01 T01201002  RH  043%=      5-min Rain = 0
KWT1 141947Z 02013KT 12/M00 A3035 RMK A01 T01201001  RH  043%=      5-min Rain = 0
KWT1 141948Z 02013KT 12/M00 A3035 RMK A01 T01201001  RH  044%=      5-min Rain = 0
KWT1 141949Z 03012KT 12/M00 A3035 RMK A01 T01201001  RH  043%=      5-min Rain = 0
KWT1 141950Z 05011KT 12/M00 A3035 RMK A01 T01201001  RH  044%=      5-min Rain = 0
KWT1 141951Z 03011KT 12/00 A3035 RMK A01 T01210001  RH  044%=      5-min Rain = 0
KWT1 141952Z 04012KT 12/00 A3035 RMK A01 T01230001  RH  043%=      5-min Rain = 0
KWT1 141953Z 05014KT 13/00 A3035 RMK A01 T01250001  RH  042%=      5-min Rain = 0
KWT1 141954Z 04010G15KT 13/00 A3035 RMK A01 T01250001  RH  042%=      5-min Rain = 0
KWT1 141955Z 03010G15KT 13/00 A3035 RMK A01 T01270002  RH  042%=      5-min Rain = 0
KWT1 141956Z 03012KT 13/M00 A3035 RMK A01 T01271001  RH  041%=      5-min Rain = 0
KWT1 141957Z 04014G20KT 12/M00 A3035 RMK A01 T01241004  RH  041%=      5-min Rain = 0
KWT1 141958Z 04016KT 12/M01 A3035 RMK A01 T01221005  RH  042%=      5-min Rain = 0
KWT1 141959Z 05018KT 12/M01 A3035 RMK A01 T01201006  RH  042%=      5-min Rain = 0
KWT1 142000Z 04017KT 12/M01 A3035 RMK A01 T01181006  RH  042%=      5-min Rain = 0
KWT1 142001Z 03018KT 12/M01 A3035 RMK A01 T01181006  RH  042%=      5-min Rain = 0
KWT1 142002Z 03016KT 12/M01 A3035 RMK A01 T01171006  RH  043%=      5-min Rain = 0
KWT1 142003Z 03016KT 12/M01 A3035 RMK A01 T01171005  RH  043%=      5-min Rain = 0
KWT1 142004Z 04015KT 12/M00 A3035 RMK A01 T01181002  RH  043%=      5-min Rain = 0
KWT1 142005Z 04014KT 12/M00 A3035 RMK A01 T01181004  RH  043%=      5-min Rain = 0
KWT1 142006Z 04012KT 12/M01 A3035 RMK A01 T01171005  RH  043%=      5-min Rain = 0
KWT1 142007Z 04012KT 12/M00 A3035 RMK A01 T01191004  RH  043%=      5-min Rain = 0
KWT1 142008Z 05012KT 12/M00 A3035 RMK A01 T01211002  RH  043%=      5-min Rain = 0
KWT1 142009Z 05011KT 12/00 A3035 RMK A01 T01210000  RH  043%=      5-min Rain = 0
KWT1 142010Z 05011G16KT 12/00 A3035 RMK A01 T01240001  RH  043%=      5-min Rain = 0
KWT1 142011Z 05012KT 12/M00 A3035 RMK A01 T01231002  RH  042%=      5-min Rain = 0
KWT1 142012Z 05008KT 12/M00 A3035 RMK A01 T01211001  RH  043%=      5-min Rain = 0
KWT1 142013Z 04010KT 12/M00 A3035 RMK A01 T01221001  RH  043%=      5-min Rain = 0
KWT1 142014Z 04013KT 12/M00 A3035 RMK A01 T01221002  RH  042%=      5-min Rain = 0
KWT1 142015Z 03014KT 12/M00 A3035 RMK A01 T01211003  RH  042%=      5-min Rain = 0
KWT1 142016Z 03015KT 12/M00 A3035 RMK A01 T01221004  RH  042%=      5-min Rain = 0
KWT1 142017Z 02013KT 12/M01 A3035 RMK A01 T01231005  RH  041%=      5-min Rain = 0
KWT1 142018Z 01013KT 12/M01 A3035 RMK A01 T01231006  RH  041%=      5-min Rain = 0
KWT1 142019Z 02013KT 12/M01 A3035 RMK A01 T01231006  RH  041%=      5-min Rain = 0
KWT1 142020Z 02013KT 12/M01 A3035 RMK A01 T01231007  RH  041%=      5-min Rain = 0
KWT1 142021Z 04015KT 12/M01 A3035 RMK A01 T01211007  RH  041%=      5-min Rain = 0
KWT1 142022Z 04015KT 12/M01 A3035 RMK A01 T01201007  RH  041%=      5-min Rain = 0
KWT1 142023Z 04015KT 12/M01 A3035 RMK A01 T01201006  RH  042%=      5-min Rain = 0
KWT1 142024Z 03015KT 12/M01 A3035 RMK A01 T01201008  RH  041%=      5-min Rain = 0
KWT1 142025Z 03016KT 12/M01 A3034 RMK A01 T01191010  RH  041%=      5-min Rain = 0
KWT1 142026Z 03018KT 12/M01 A3035 RMK A01 T01191009  RH  041%=      5-min Rain = 0
KWT1 142027Z 03017KT 12/M01 A3034 RMK A01 T01191010  RH  041%=      5-min Rain = 0
KWT1 142028Z 04016KT 12/M01 A3034 RMK A01 T01181008  RH  042%=      5-min Rain = 0
KWT1 142029Z 05017KT 12/M01 A3034 RMK A01 T01181007  RH  042%=      5-min Rain = 0
KWT1 142030Z 04015KT 12/M01 A3035 RMK A01 T01181008  RH  042%=      5-min Rain = 0
KWT1 142031Z 05012KT 12/M01 A3034 RMK A01 T01191007  RH  042%=      5-min Rain = 0
KWT1 142032Z 04011KT 12/M01 A3034 RMK A01 T01191005  RH  042%=      5-min Rain = 0
KWT1 142033Z 04012KT 12/M00 A3034 RMK A01 T01201004  RH  042%=      5-min Rain = 0
KWT1 142034Z 04012KT 12/M00 A3034 RMK A01 T01211004  RH  042%=      5-min Rain = 0
KWT1 142035Z 03014KT 12/M01 A3034 RMK A01 T01201005  RH  042%=      5-min Rain = 0
KWT1 142036Z 03014KT 12/M00 A3034 RMK A01 T01201004  RH  042%=      5-min Rain = 0
KWT1 142037Z 04015KT 12/M01 A3034 RMK A01 T01221005  RH  042%=      5-min Rain = 0
KWT1 142038Z 03014KT 12/M01 A3034 RMK A01 T01211007  RH  041%=      5-min Rain = 0
KWT1 142039Z 01012KT 12/M01 A3034 RMK A01 T01211006  RH  042%=      5-min Rain = 0
KWT1 142040Z 02009G14KT 12/M01 A3034 RMK A01 T01211005  RH  042%=      5-min Rain = 0
KWT1 142041Z 02015KT 12/M00 A3034 RMK A01 T01241004  RH  041%=      5-min Rain = 0
KWT1 142042Z 03017KT 12/M01 A3034 RMK A01 T01231007  RH  041%=      5-min Rain = 0
KWT1 142043Z 03017KT 12/M01 A3034 RMK A01 T01211008  RH  041%=      5-min Rain = 0
KWT1 142044Z 03016KT 12/M01 A3034 RMK A01 T01201007  RH  041%=      5-min Rain = 0
KWT1 142045Z 05012KT 12/M01 A3034 RMK A01 T01181007  RH  042%=      5-min Rain = 0
KWT1 142046Z 03012KT 12/M00 A3034 RMK A01 T01201004  RH  042%=      5-min Rain = 0
KWT1 142047Z 05012KT 12/M01 A3034 RMK A01 T01221005  RH  041%=      5-min Rain = 0
KWT1 142048Z 05013KT 12/M00 A3034 RMK A01 T01231004  RH  041%=      5-min Rain = 0
KWT1 142049Z 05011KT 12/M01 A3034 RMK A01 T01231005  RH  041%=      5-min Rain = 0
KWT1 142050Z 04010KT 12/M00 A3034 RMK A01 T01231003  RH  042%=      5-min Rain = 0
KWT1 142051Z 03015KT 13/M00 A3034 RMK A01 T01251004  RH  041%=      5-min Rain = 0
KWT1 142052Z 02014KT 12/M01 A3034 RMK A01 T01231006  RH  041%=      5-min Rain = 0
KWT1 142053Z 03011KT 12/M01 A3034 RMK A01 T01221006  RH  041%=      5-min Rain = 0
KWT1 142054Z 03013KT 12/M01 A3034 RMK A01 T01211005  RH  042%=      5-min Rain = 0
KWT1 142055Z 04014KT 12/M01 A3034 RMK A01 T01211005  RH  042%=      5-min Rain = 0
KWT1 142056Z 04012KT 12/M00 A3034 RMK A01 T01211003  RH  042%=      5-min Rain = 0
KWT1 142057Z 05011KT 12/M00 A3034 RMK A01 T01211004  RH  042%=      5-min Rain = 0
KWT1 142058Z 05010KT 12/M00 A3034 RMK A01 T01211004  RH  042%=      5-min Rain = 0
KWT1 142059Z 06008KT 12/M00 A3034 RMK A01 T01201004  RH  042%=      5-min Rain = 0
KWT1 142100Z 05009KT 12/M00 A3034 RMK A01 T01211002  RH  042%=      5-min Rain = 0
KWT1 142101Z 05012KT 12/M00 A3034 RMK A01 T01231003  RH  042%=      5-min Rain = 0
KWT1 142102Z 04014KT 12/M00 A3034 RMK A01 T01241002  RH  042%=      5-min Rain = 0
KWT1 142103Z 04012KT 13/M00 A3034 RMK A01 T01261003  RH  041%=      5-min Rain = 0
KWT1 142104Z 05015KT 13/M00 A3034 RMK A01 T01261003  RH  041%=      5-min Rain = 0
KWT1 142105Z 05015KT 13/M00 A3034 RMK A01 T01251004  RH  041%=      5-min Rain = 0
KWT1 142106Z 05015KT 12/M01 A3034 RMK A01 T01231005  RH  041%=      5-min Rain = 0
KWT1 142107Z 05015KT 12/M01 A3034 RMK A01 T01221006  RH  041%=      5-min Rain = 0
KWT1 142108Z 05013KT 12/M01 A3034 RMK A01 T01201006  RH  042%=      5-min Rain = 0
KWT1 142109Z 04011G16KT 12/M00 A3034 RMK A01 T01211004  RH  042%=      5-min Rain = 0
KWT1 142110Z 03011KT 12/M00 A3034 RMK A01 T01231003  RH  042%=      5-min Rain = 0
KWT1 142111Z 05013KT 13/M00 A3034 RMK A01 T01251003  RH  041%=      5-min Rain = 0
KWT1 142112Z 04011KT 12/M01 A3034 RMK A01 T01231005  RH  041%=      5-min Rain = 0
KWT1 142113Z 04011KT 12/M00 A3034 RMK A01 T01211004  RH  042%=      5-min Rain = 0
KWT1 142114Z 04011KT 12/M00 A3034 RMK A01 T01211004  RH  042%=      5-min Rain = 0
KWT1 142115Z 03011KT 12/M00 A3034 RMK A01 T01211004  RH  042%=      5-min Rain = 0
KWT1 142116Z 05011KT 12/M00 A3034 RMK A01 T01211003  RH  042%=      5-min Rain = 0
KWT1 142117Z 05012KT 12/M00 A3034 RMK A01 T01211004  RH  042%=      5-min Rain = 0
KWT1 142118Z 04011KT 12/M00 A3034 RMK A01 T01211003  RH  042%=      5-min Rain = 0
KWT1 142119Z 04012KT 12/M00 A3034 RMK A01 T01211003  RH  042%=      5-min Rain = 0
KWT1 142120Z 05013KT 12/M00 A3034 RMK A01 T01221002  RH  042%=      5-min Rain = 0
KWT1 142121Z 04012KT 12/M00 A3034 RMK A01 T01221003  RH  042%=      5-min Rain = 0
KWT1 142122Z 04012KT 12/M00 A3034 RMK A01 T01231002  RH  042%=      5-min Rain = 0
KWT1 142123Z 04011KT 12/M00 A3034 RMK A01 T01241002  RH  042%=      5-min Rain = 0
KWT1 142124Z 05012G18KT 12/M00 A3034 RMK A01 T01231003  RH  042%=      5-min Rain = 0
KWT1 142125Z 05014KT 12/M00 A3034 RMK A01 T01221003  RH  042%=      5-min Rain = 0
KWT1 142126Z 05010KT 12/M00 A3034 RMK A01 T01221003  RH  042%=      5-min Rain = 0
KWT1 142127Z 05009KT 12/M00 A3034 RMK A01 T01221001  RH  043%=      5-min Rain = 0
KWT1 142128Z 05011KT 13/00 A3034 RMK A01 T012500-0  RH  042%=      5-min Rain = 0
KWT1 142129Z 06012KT 13/M00 A3034 RMK A01 T01251002  RH  042%=      5-min Rain = 0
KWT1 142130Z 05014KT 12/M00 A3034 RMK A01 T01241003  RH  042%=      5-min Rain = 0
KWT1 142131Z 05014KT 12/M00 A3034 RMK A01 T01241003  RH  042%=      5-min Rain = 0
KWT1 142132Z 05013KT 12/M00 A3034 RMK A01 T01231003  RH  042%=      5-min Rain = 0
KWT1 142133Z 05013KT 12/M00 A3034 RMK A01 T01221003  RH  042%=      5-min Rain = 0
KWT1 142134Z 04013KT 12/M00 A3034 RMK A01 T01221002  RH  042%=      5-min Rain = 0
KWT1 142135Z 05011KT 12/M00 A3034 RMK A01 T01221002  RH  042%=      5-min Rain = 0
KWT1 142136Z 04011KT 12/M00 A3034 RMK A01 T01221002  RH  042%=      5-min Rain = 0
KWT1 142137Z 05011KT 12/M00 A3034 RMK A01 T01221002  RH  042%=      5-min Rain = 0
KWT1 142138Z 04010KT 12/M00 A3034 RMK A01 T01211003  RH  042%=      5-min Rain = 0
KWT1 142139Z 03009KT 12/M00 A3034 RMK A01 T01211002  RH  043%=      5-min Rain = 0
KWT1 142140Z 04012KT 12/M00 A3034 RMK A01 T01221002  RH  042%=      5-min Rain = 0
KWT1 142141Z 05010KT 12/M00 A3034 RMK A01 T01231001  RH  042%=      5-min Rain = 0
KWT1 142142Z 06010KT 12/M00 A3034 RMK A01 T01231002  RH  042%=      5-min Rain = 0
KWT1 142143Z 05012KT 12/M00 A3034 RMK A01 T01231002  RH  042%=      5-min Rain = 0
KWT1 142144Z 05013KT 12/M00 A3034 RMK A01 T01231002  RH  042%=      5-min Rain = 0
KWT1 142145Z 03014KT 12/M00 A3034 RMK A01 T01221002  RH  042%=      5-min Rain = 0
KWT1 142146Z 04013KT 12/M00 A3034 RMK A01 T01211002  RH  043%=      5-min Rain = 0
KWT1 142147Z 05013KT 12/M00 A3034 RMK A01 T01201002  RH  043%=      5-min Rain = 0
KWT1 142148Z 05012KT 12/M00 A3034 RMK A01 T01211002  RH  043%=      5-min Rain = 0
KWT1 142149Z 05011KT 12/M00 A3034 RMK A01 T01211001  RH  043%=      5-min Rain = 0
KWT1 142150Z 04012KT 12/M00 A3034 RMK A01 T01221001  RH  043%=      5-min Rain = 0
KWT1 142151Z 02010KT 12/M00 A3034 RMK A01 T01211002  RH  043%=      5-min Rain = 0
KWT1 142152Z 02010KT 12/M00 A3034 RMK A01 T01211002  RH  043%=      5-min Rain = 0
KWT1 142153Z 02009KT 12/M00 A3034 RMK A01 T01201002  RH  043%=      5-min Rain = 0
KWT1 142154Z 03011KT 12/M00 A3034 RMK A01 T01201002  RH  043%=      5-min Rain = 0
KWT1 142155Z 02011KT 12/M00 A3034 RMK A01 T01201002  RH  043%=      5-min Rain = 0
KWT1 142156Z 03011KT 12/M00 A3034 RMK A01 T01201002  RH  043%=      5-min Rain = 0
KWT1 142157Z 04012KT 12/M00 A3034 RMK A01 T01201002  RH  043%=      5-min Rain = 0
KWT1 142158Z 04012KT 12/M00 A3034 RMK A01 T01201002  RH  043%=      5-min Rain = 0
KWT1 142159Z 05011KT 12/M00 A3034 RMK A01 T01201002  RH  043%=      5-min Rain = 0
KWT1 142200Z 05013KT 12/M00 A3034 RMK A01 T01211002  RH  043%=      5-min Rain = 0
KWT1 142201Z 05013KT 12/M00 A3034 RMK A01 T01201002  RH  043%=      5-min Rain = 0
KWT1 142202Z 06014KT 12/M00 A3034 RMK A01 T01201002  RH  043%=      5-min Rain = 0
KWT1 142203Z 06012KT 12/M00 A3034 RMK A01 T01191002  RH  043%=      5-min Rain = 0
KWT1 142204Z 05012KT 12/M00 A3034 RMK A01 T01191002  RH  043%=      5-min Rain = 0
KWT1 142205Z 05012KT 12/M00 A3034 RMK A01 T01191001  RH  044%=      5-min Rain = 0
KWT1 142206Z 05010KT 12/M00 A3034 RMK A01 T01191001  RH  044%=      5-min Rain = 0
KWT1 142207Z 04010KT 12/00 A3034 RMK A01 T011900-0  RH  044%=      5-min Rain = 0
KWT1 142208Z 04010KT 12/00 A3034 RMK A01 T012000-0  RH  043%=      5-min Rain = 0
KWT1 142209Z 05011KT 12/M00 A3034 RMK A01 T01191001  RH  043%=      5-min Rain = 0
KWT1 142210Z 05011KT 12/M00 A3034 RMK A01 T01191001  RH  044%=      5-min Rain = 0
KWT1 142211Z 05009KT 12/00 A3034 RMK A01 T011900-0  RH  044%=      5-min Rain = 0
KWT1 142212Z 05010KT 12/M00 A3034 RMK A01 T01191001  RH  044%=      5-min Rain = 0
KWT1 142213Z 03008KT 12/00 A3034 RMK A01 T011900-0  RH  044%=      5-min Rain = 0
KWT1 142214Z 02009KT 12/00 A3034 RMK A01 T01200001  RH  044%=      5-min Rain = 0
KWT1 142215Z 03009KT 12/00 A3034 RMK A01 T012000-0  RH  043%=      5-min Rain = 0
KWT1 142216Z 02009KT 12/00 A3034 RMK A01 T01200000  RH  044%=      5-min Rain = 0
KWT1 142217Z 04010KT 12/00 A3034 RMK A01 T01200001  RH  044%=      5-min Rain = 0
KWT1 142218Z 05010KT 12/00 A3034 RMK A01 T01210000  RH  044%=      5-min Rain = 0
KWT1 142219Z 05012KT 12/00 A3034 RMK A01 T01200000  RH  044%=      5-min Rain = 0
KWT1 142220Z 04011KT 12/00 A3034 RMK A01 T01200000  RH  044%=      5-min Rain = 0
KWT1 142221Z 03010KT 12/00 A3034 RMK A01 T01190000  RH  044%=      5-min Rain = 0
KWT1 142222Z 02010KT 12/00 A3034 RMK A01 T01200000  RH  044%=      5-min Rain = 0
KWT1 142223Z 01009KT 12/M00 A3034 RMK A01 T01191001  RH  044%=      5-min Rain = 0
KWT1 142224Z 03009KT 12/00 A3035 RMK A01 T011900-0  RH  044%=      5-min Rain = 0
KWT1 142225Z 05010KT 12/00 A3035 RMK A01 T01200000  RH  044%=      5-min Rain = 0
KWT1 142226Z 05011KT 12/00 A3035 RMK A01 T01190000  RH  044%=      5-min Rain = 0
KWT1 142227Z 04011KT 12/M00 A3035 RMK A01 T01191001  RH  044%=      5-min Rain = 0
KWT1 142228Z 04008KT 12/M00 A3035 RMK A01 T01181001  RH  044%=      5-min Rain = 0
KWT1 142229Z 04008KT 12/00 A3035 RMK A01 T011800-0  RH  044%=      5-min Rain = 0
KWT1 142230Z 04009KT 12/M00 A3035 RMK A01 T01181001  RH  044%=      5-min Rain = 0
KWT1 142231Z 05010KT 12/00 A3035 RMK A01 T01180000  RH  044%=      5-min Rain = 0
KWT1 142232Z 04009KT 12/00 A3035 RMK A01 T01180000  RH  044%=      5-min Rain = 0
KWT1 142233Z 05010KT 12/00 A3035 RMK A01 T01180001  RH  044%=      5-min Rain = 0
KWT1 142234Z 04009KT 12/00 A3035 RMK A01 T01180001  RH  044%=      5-min Rain = 0
KWT1 142235Z 05008KT 12/00 A3035 RMK A01 T01180001  RH  044%=      5-min Rain = 0
KWT1 142236Z 05010KT 12/00 A3035 RMK A01 T01180001  RH  044%=      5-min Rain = 0
KWT1 142237Z 05008KT 12/00 A3035 RMK A01 T01180000  RH  044%=      5-min Rain = 0
KWT1 142238Z 04008KT 12/00 A3035 RMK A01 T01180001  RH  044%=      5-min Rain = 0
KWT1 142239Z 06008KT 12/00 A3035 RMK A01 T01180001  RH  045%=      5-min Rain = 0
KWT1 142240Z 05009KT 12/00 A3035 RMK A01 T011700-0  RH  044%=      5-min Rain = 0
KWT1 142241Z 04009KT 12/M00 A3035 RMK A01 T01171001  RH  044%=      5-min Rain = 0
KWT1 142242Z 04007KT 12/00 A3035 RMK A01 T011600-0  RH  045%=      5-min Rain = 0
KWT1 142243Z 03008KT 12/00 A3035 RMK A01 T01160001  RH  045%=      5-min Rain = 0
KWT1 142244Z 03009KT 12/00 A3035 RMK A01 T01170000  RH  045%=      5-min Rain = 0
KWT1 142245Z 04011KT 12/00 A3035 RMK A01 T011700-0  RH  044%=      5-min Rain = 0
KWT1 142246Z 04010KT 12/00 A3035 RMK A01 T01170000  RH  045%=      5-min Rain = 0
KWT1 142247Z 04010KT 12/00 A3035 RMK A01 T011600-0  RH  045%=      5-min Rain = 0
KWT1 142248Z 04011KT 12/M00 A3035 RMK A01 T01151001  RH  045%=      5-min Rain = 0
KWT1 142249Z 04010KT 12/M00 A3035 RMK A01 T01151001  RH  045%=      5-min Rain = 0
KWT1 142250Z 03011KT 11/M00 A3035 RMK A01 T01141001  RH  045%=      5-min Rain = 0
KWT1 142251Z 03011KT 11/M00 A3035 RMK A01 T01141001  RH  045%=      5-min Rain = 0
KWT1 142252Z 02011KT 11/M00 A3035 RMK A01 T01141001  RH  045%=      5-min Rain = 0
KWT1 142253Z 02011KT 11/M00 A3035 RMK A01 T01141002  RH  045%=      5-min Rain = 0
KWT1 142254Z 03010KT 11/M00 A3035 RMK A01 T01131002  RH  045%=      5-min Rain = 0
KWT1 142255Z 05008KT 11/M00 A3035 RMK A01 T01131002  RH  045%=      5-min Rain = 0
KWT1 142256Z 04007KT 11/M00 A3035 RMK A01 T01131001  RH  045%=      5-min Rain = 0
KWT1 142257Z 05008KT 11/00 A3035 RMK A01 T011300-0  RH  045%=      5-min Rain = 0
KWT1 142258Z 04008KT 11/00 A3035 RMK A01 T01130000  RH  046%=      5-min Rain = 0
KWT1 142259Z 04007KT 11/00 A3035 RMK A01 T01130001  RH  046%=      5-min Rain = 0
KWT1 142300Z 03009KT 11/00 A3035 RMK A01 T01130001  RH  046%=      5-min Rain = 0
KWT1 142301Z 03010KT 11/00 A3035 RMK A01 T01120000  RH  046%=      5-min Rain = 0
KWT1 142302Z 03010KT 11/M00 A3035 RMK A01 T01121001  RH  046%=      5-min Rain = 0
KWT1 142303Z 03011KT 11/M00 A3035 RMK A01 T01111001  RH  046%=      5-min Rain = 0
KWT1 142304Z 04011KT 11/M00 A3035 RMK A01 T01111002  RH  046%=      5-min Rain = 0
KWT1 142305Z 05009KT 11/M00 A3036 RMK A01 T01111002  RH  046%=      5-min Rain = 0
KWT1 142306Z 03008KT 11/M00 A3036 RMK A01 T01101001  RH  046%=      5-min Rain = 0
KWT1 142307Z 03009KT 11/M00 A3035 RMK A01 T01101002  RH  046%=      5-min Rain = 0
KWT1 142308Z 03009KT 11/M00 A3036 RMK A01 T01101003  RH  045%=      5-min Rain = 0
KWT1 142309Z 03010KT 11/M00 A3036 RMK A01 T01101004  RH  045%=      5-min Rain = 0
KWT1 142310Z 03010KT 11/M00 A3036 RMK A01 T01091004  RH  045%=      5-min Rain = 0
KWT1 142311Z 03010KT 11/M00 A3036 RMK A01 T01091004  RH  046%=      5-min Rain = 0
KWT1 142312Z 04010KT 11/M00 A3036 RMK A01 T01091004  RH  046%=      5-min Rain = 0
KWT1 142313Z 04011KT 11/M00 A3036 RMK A01 T01081004  RH  046%=      5-min Rain = 0
KWT1 142314Z 03009KT 11/M00 A3036 RMK A01 T01081004  RH  046%=      5-min Rain = 0
KWT1 142315Z 03011KT 11/M00 A3036 RMK A01 T01081004  RH  046%=      5-min Rain = 0
KWT1 142316Z 03011KT 11/M00 A3036 RMK A01 T01081004  RH  046%=      5-min Rain = 0
KWT1 142317Z 03011KT 11/M00 A3036 RMK A01 T01081004  RH  046%=      5-min Rain = 0
KWT1 142318Z 03011KT 11/M00 A3036 RMK A01 T01081004  RH  046%=      5-min Rain = 0
KWT1 142319Z 03010KT 11/M00 A3036 RMK A01 T01071004  RH  046%=      5-min Rain = 0
KWT1 142320Z 03010KT 11/M00 A3036 RMK A01 T01071003  RH  046%=      5-min Rain = 0
KWT1 142321Z 03010KT 11/M00 A3036 RMK A01 T01061003  RH  047%=      5-min Rain = 0
KWT1 142322Z 03009KT 11/M00 A3036 RMK A01 T01061003  RH  047%=      5-min Rain = 0
KWT1 142323Z 04007KT 11/M00 A3036 RMK A01 T01051003  RH  047%=      5-min Rain = 0
KWT1 142324Z 04009KT 10/M00 A3036 RMK A01 T01041003  RH  047%=      5-min Rain = 0
KWT1 142325Z 04009KT 10/M00 A3036 RMK A01 T01041003  RH  048%=      5-min Rain = 0
KWT1 142326Z 04007KT 10/M00 A3036 RMK A01 T01031003  RH  048%=      5-min Rain = 0
KWT1 142327Z 04007KT 10/M00 A3036 RMK A01 T01031002  RH  048%=      5-min Rain = 0
KWT1 142328Z 04008KT 10/M00 A3036 RMK A01 T01021002  RH  048%=      5-min Rain = 0
KWT1 142329Z 04007KT 10/M00 A3036 RMK A01 T01021002  RH  048%=      5-min Rain = 0
KWT1 142330Z 04008KT 10/M00 A3036 RMK A01 T01011002  RH  049%=      5-min Rain = 0
KWT1 142331Z 04009KT 10/M00 A3036 RMK A01 T01001002  RH  049%=      5-min Rain = 0
KWT1 142332Z 04010KT 10/M00 A3036 RMK A01 T01001002  RH  049%=      5-min Rain = 0
KWT1 142333Z 04009KT 10/M00 A3036 RMK A01 T01001002  RH  049%=      5-min Rain = 0
KWT1 142334Z 04010KT 10/M00 A3036 RMK A01 T01001003  RH  049%=      5-min Rain = 0
KWT1 142335Z 04009KT 10/M00 A3036 RMK A01 T01001003  RH  049%=      5-min Rain = 0
KWT1 142336Z 04008KT 10/M00 A3036 RMK A01 T01001003  RH  049%=      5-min Rain = 0
KWT1 142337Z 03008KT 10/M00 A3036 RMK A01 T01001003  RH  049%=      5-min Rain = 0
KWT1 142338Z 03009KT 10/M00 A3037 RMK A01 T00991002  RH  049%=      5-min Rain = 0
KWT1 142339Z 04007KT 10/M00 A3037 RMK A01 T00991003  RH  049%=      5-min Rain = 0
KWT1 142340Z 04008KT 10/M00 A3037 RMK A01 T00981002  RH  050%=      5-min Rain = 0
KWT1 142341Z 04008KT 10/M00 A3037 RMK A01 T00971002  RH  050%=      5-min Rain = 0
KWT1 142342Z 04008KT 10/M00 A3037 RMK A01 T00961003  RH  050%=      5-min Rain = 0
KWT1 142343Z 04007KT 10/M00 A3037 RMK A01 T00961003  RH  050%=      5-min Rain = 0
KWT1 142344Z 04008KT 10/M00 A3037 RMK A01 T00951003  RH  050%=      5-min Rain = 0
KWT1 142345Z 04008KT 10/M00 A3037 RMK A01 T00951003  RH  051%=      5-min Rain = 0
KWT1 142346Z 04007KT 10/M00 A3037 RMK A01 T00951003  RH  051%=      5-min Rain = 0
KWT1 142347Z 04007KT 09/M00 A3037 RMK A01 T00941003  RH  051%=      5-min Rain = 0
KWT1 142348Z 04007KT 09/M00 A3037 RMK A01 T00941003  RH  051%=      5-min Rain = 0
KWT1 142349Z 03007KT 09/M00 A3037 RMK A01 T00931003  RH  051%=      5-min Rain = 0
KWT1 142350Z 04007KT 09/M00 A3037 RMK A01 T00921003  RH  051%=      5-min Rain = 0
KWT1 142351Z 03006KT 09/M00 A3037 RMK A01 T00921003  RH  051%=      5-min Rain = 0
KWT1 142352Z 04006KT 09/M00 A3037 RMK A01 T00911003  RH  052%=      5-min Rain = 0
KWT1 142353Z 04006KT 09/M00 A3037 RMK A01 T00901003  RH  052%=      5-min Rain = 0
KWT1 142354Z 04007KT 09/M00 A3037 RMK A01 T00891004  RH  052%=      5-min Rain = 0
KWT1 142355Z 04006KT 09/M00 A3037 RMK A01 T00891004  RH  052%=      5-min Rain = 0
KWT1 142356Z 04006KT 09/M00 A3037 RMK A01 T00891003  RH  052%=      5-min Rain = 0
KWT1 142357Z 04005KT 09/M00 A3037 RMK A01 T00881003  RH  053%=      5-min Rain = 0
KWT1 142358Z 04005KT 09/M00 A3037 RMK A01 T00881003  RH  053%=      5-min Rain = 0
KWT1 142359Z 04005KT 09/M00 A3037 RMK A01 T00871003  RH  053%=      5-min Rain = 0
KWT1 150000Z 04006KT 09/M00 A3037 RMK A01 T00861004  RH  053%=      5-min Rain = 0
KWT1 150001Z 04006KT 09/M00 A3038 RMK A01 T00851004  RH  054%=      5-min Rain = 0
KWT1 150002Z 04006KT 08/M00 A3038 RMK A01 T00841004  RH  054%=      5-min Rain = 0
KWT1 150003Z 05006KT 08/M00 A3038 RMK A01 T00841003  RH  054%=      5-min Rain = 0
KWT1 150004Z 05006KT 08/M00 A3038 RMK A01 T00831003  RH  055%=      5-min Rain = 0
KWT1 150005Z 05006KT 08/M00 A3038 RMK A01 T00831003  RH  055%=      5-min Rain = 0
KWT1 150006Z 04005KT 08/M00 A3038 RMK A01 T00821003  RH  055%=      5-min Rain = 0
KWT1 150007Z 04005KT 08/M00 A3038 RMK A01 T00811002  RH  056%=      5-min Rain = 0
KWT1 150008Z 04006KT 08/M00 A3038 RMK A01 T00811002  RH  056%=      5-min Rain = 0
KWT1 150009Z 04005KT 08/M00 A3038 RMK A01 T00811002  RH  056%=      5-min Rain = 0
KWT1 150010Z 04006KT 08/M00 A3038 RMK A01 T00811002  RH  056%=      5-min Rain = 0
KWT1 150011Z 04006KT 08/M00 A3038 RMK A01 T00811002  RH  056%=      5-min Rain = 0
KWT1 150012Z 05006KT 08/M00 A3038 RMK A01 T00801002  RH  056%=      5-min Rain = 0
KWT1 150013Z 04005KT 08/M00 A3038 RMK A01 T00791002  RH  056%=      5-min Rain = 0
KWT1 150014Z 05005KT 08/M00 A3038 RMK A01 T00791002  RH  057%=      5-min Rain = 0
KWT1 150015Z 05004KT 08/M00 A3038 RMK A01 T00781002  RH  057%=      5-min Rain = 0
KWT1 150016Z 04004KT 08/M00 A3038 RMK A01 T00771002  RH  057%=      5-min Rain = 0
KWT1 150017Z 04005KT 08/M00 A3038 RMK A01 T00761002  RH  058%=      5-min Rain = 0
KWT1 150018Z 05005KT 08/M00 A3038 RMK A01 T00771001  RH  058%=      5-min Rain = 0
KWT1 150019Z 04005KT 08/M00 A3038 RMK A01 T00771002  RH  058%=      5-min Rain = 0
KWT1 150020Z 04005KT 08/M00 A3038 RMK A01 T00771001  RH  058%=      5-min Rain = 0
KWT1 150021Z 04004KT 08/M00 A3038 RMK A01 T00771001  RH  058%=      5-min Rain = 0
KWT1 150022Z 04004KT 08/M00 A3038 RMK A01 T00771001  RH  058%=      5-min Rain = 0
KWT1 150023Z 04004KT 08/M00 A3038 RMK A01 T00761001  RH  058%=      5-min Rain = 0
KWT1 150024Z 04004KT 08/M00 A3038 RMK A01 T00761001  RH  058%=      5-min Rain = 0
KWT1 150025Z 04004KT 08/M00 A3038 RMK A01 T00761001  RH  058%=      5-min Rain = 0
KWT1 150026Z 04004KT 08/M00 A3038 RMK A01 T00761001  RH  058%=      5-min Rain = 0
KWT1 150027Z 04004KT 08/M00 A3038 RMK A01 T00751001  RH  058%=      5-min Rain = 0
KWT1 150028Z 04004KT 08/M00 A3038 RMK A01 T00751001  RH  059%=      5-min Rain = 0
KWT1 150029Z 04004KT 08/M00 A3038 RMK A01 T00751001  RH  059%=      5-min Rain = 0
KWT1 150030Z 04004KT 08/M00 A3038 RMK A01 T00751001  RH  059%=      5-min Rain = 0
KWT1 150031Z 04004KT 08/M00 A3039 RMK A01 T00751001  RH  059%=      5-min Rain = 0
KWT1 150032Z 04004KT 07/M00 A3039 RMK A01 T00741001  RH  059%=      5-min Rain = 0
KWT1 150033Z 04004KT 07/M00 A3039 RMK A01 T00741001  RH  059%=      5-min Rain = 0
KWT1 150034Z 04003KT 07/M00 A3039 RMK A01 T00741001  RH  059%=      5-min Rain = 0
KWT1 150035Z 04003KT 07/M00 A3039 RMK A01 T00741001  RH  059%=      5-min Rain = 0
KWT1 150036Z 04003KT 07/M00 A3039 RMK A01 T00741001  RH  059%=      5-min Rain = 0
KWT1 150037Z 04003KT 07/M00 A3039 RMK A01 T00741001  RH  059%=      5-min Rain = 0
KWT1 150038Z 04003KT 07/M00 A3039 RMK A01 T00741001  RH  059%=      5-min Rain = 0
KWT1 150039Z 04003KT 07/M00 A3039 RMK A01 T00741001  RH  059%=      5-min Rain = 0
KWT1 150040Z 04003KT 07/M00 A3039 RMK A01 T00741001  RH  059%=      5-min Rain = 0
KWT1 150041Z 04003KT 07/M00 A3039 RMK A01 T00741001  RH  059%=      5-min Rain = 0
KWT1 150042Z 04003KT 07/00 A3039 RMK A01 T007300-0  RH  059%=      5-min Rain = 0
KWT1 150043Z 04002KT 07/00 A3039 RMK A01 T007300-0  RH  060%=      5-min Rain = 0
KWT1 150044Z 04002KT 07/00 A3039 RMK A01 T007300-0  RH  060%=      5-min Rain = 0
KWT1 150045Z 04003KT 07/00 A3039 RMK A01 T007300-0  RH  060%=      5-min Rain = 0
KWT1 150046Z 04002KT 07/M00 A3039 RMK A01 T00731001  RH  060%=      5-min Rain = 0
KWT1 150047Z 04002KT 07/M00 A3039 RMK A01 T00721001  RH  060%=      5-min Rain = 0
KWT1 150048Z 04002KT 07/M00 A3039 RMK A01 T00721001  RH  060%=      5-min Rain = 0
KWT1 150049Z 04002KT 07/00 A3039 RMK A01 T007200-0  RH  060%=      5-min Rain = 0
KWT1 150050Z 03002KT 07/00 A3039 RMK A01 T007200-0  RH  060%=      5-min Rain = 0
KWT1 150051Z 03002KT 07/00 A3039 RMK A01 T007200-0  RH  060%=      5-min Rain = 0
KWT1 150052Z 03002KT 07/M00 A3039 RMK A01 T00721001  RH  060%=      5-min Rain = 0
KWT1 150053Z 03001KT 07/M00 A3039 RMK A01 T00721001  RH  060%=      5-min Rain = 0
KWT1 150054Z 03002KT 07/M00 A3039 RMK A01 T00721001  RH  060%=      5-min Rain = 0
KWT1 150055Z 02002KT 07/M00 A3039 RMK A01 T00721001  RH  060%=      5-min Rain = 0
KWT1 150056Z 02002KT 07/M00 A3039 RMK A01 T00721001  RH  060%=      5-min Rain = 0
KWT1 150057Z 02002KT 07/M00 A3039 RMK A01 T00721001  RH  060%=      5-min Rain = 0
KWT1 150058Z 02002KT 07/M00 A3039 RMK A01 T00721001  RH  060%=      5-min Rain = 0
KWT1 150059Z 02002KT 07/M00 A3039 RMK A01 T00721001  RH  060%=      5-min Rain = 0
KWT1 150100Z 02002KT 07/M00 A3039 RMK A01 T00721001  RH  060%=      5-min Rain = 0
KWT1 150101Z 02002KT 07/00 A304 RMK A01 T007200-0  RH  060%=      5-min Rain = 0
KWT1 150102Z 02002KT 07/00 A304 RMK A01 T007200-0  RH  060%=      5-min Rain = 0
KWT1 150103Z 02002KT 07/00 A304 RMK A01 T007200-0  RH  060%=      5-min Rain = 0
KWT1 150104Z 02002KT 07/00 A304 RMK A01 T007200-0  RH  060%=      5-min Rain = 0
KWT1 150105Z 02002KT 07/M00 A304 RMK A01 T00711001  RH  060%=      5-min Rain = 0
KWT1 150106Z 01002KT 07/M00 A304 RMK A01 T00701001  RH  060%=      5-min Rain = 0
KWT1 150107Z 01002KT 07/M00 A304 RMK A01 T00701002  RH  060%=      5-min Rain = 0
KWT1 150108Z 02002KT 07/M00 A304 RMK A01 T00691001  RH  061%=      5-min Rain = 0
KWT1 150109Z 01002KT 07/M00 A304 RMK A01 T00691001  RH  061%=      5-min Rain = 0
KWT1 150110Z 01002KT 07/M00 A304 RMK A01 T00691001  RH  061%=      5-min Rain = 0
KWT1 150111Z 01002KT 07/M00 A304 RMK A01 T00691001  RH  061%=      5-min Rain = 0
KWT1 150112Z 02002KT 07/M00 A304 RMK A01 T00691001  RH  061%=      5-min Rain = 0
KWT1 150113Z 02002KT 07/M00 A304 RMK A01 T00701001  RH  061%=      5-min Rain = 0
KWT1 150114Z 02002KT 07/M00 A304 RMK A01 T00701001  RH  061%=      5-min Rain = 0
KWT1 150115Z 02002KT 07/M00 A304 RMK A01 T00701001  RH  061%=      5-min Rain = 0
KWT1 150116Z 02002KT 07/M00 A304 RMK A01 T00701001  RH  061%=      5-min Rain = 0
KWT1 150117Z 01002KT 07/M00 A304 RMK A01 T00701001  RH  061%=      5-min Rain = 0
KWT1 150118Z 01002KT 07/M00 A304 RMK A01 T00701001  RH  061%=      5-min Rain = 0
KWT1 150119Z 01002KT 07/M00 A304 RMK A01 T00701001  RH  061%=      5-min Rain = 0
KWT1 150120Z 01002KT 07/M00 A304 RMK A01 T00691001  RH  061%=      5-min Rain = 0
KWT1 150121Z 01002KT 07/M00 A304 RMK A01 T00691001  RH  061%=      5-min Rain = 0
KWT1 150122Z 02002KT 07/M00 A304 RMK A01 T00691001  RH  061%=      5-min Rain = 0
KWT1 150123Z 02002KT 07/M00 A304 RMK A01 T00691002  RH  061%=      5-min Rain = 0
KWT1 150124Z 02002KT 07/M00 A304 RMK A01 T00691002  RH  061%=      5-min Rain = 0
KWT1 150125Z 02002KT 07/M00 A304 RMK A01 T00691002  RH  061%=      5-min Rain = 0
KWT1 150126Z 02002KT 07/M00 A3041 RMK A01 T00681002  RH  061%=      5-min Rain = 0
KWT1 150127Z 02002KT 07/M00 A3041 RMK A01 T00681002  RH  061%=      5-min Rain = 0
KWT1 150128Z 02002KT 07/M00 A3041 RMK A01 T00691001  RH  061%=      5-min Rain = 0
KWT1 150129Z 02002KT 07/M00 A3041 RMK A01 T00691001  RH  061%=      5-min Rain = 0
KWT1 150130Z 02002KT 07/M00 A3041 RMK A01 T00681002  RH  061%=      5-min Rain = 0
KWT1 150131Z 03002KT 07/M00 A3041 RMK A01 T00681001  RH  061%=      5-min Rain = 0
KWT1 150132Z 03002KT 07/M00 A3041 RMK A01 T00681002  RH  061%=      5-min Rain = 0
KWT1 150133Z 03002KT 07/M00 A3041 RMK A01 T00671002  RH  061%=      5-min Rain = 0
KWT1 150134Z 03002KT 07/M00 A3041 RMK A01 T00671002  RH  061%=      5-min Rain = 0
KWT1 150135Z 03002KT 07/M00 A3041 RMK A01 T00661002  RH  062%=      5-min Rain = 0
KWT1 150136Z 02001KT 07/M00 A3041 RMK A01 T00651003  RH  062%=      5-min Rain = 0
KWT1 150137Z 02001KT 06/M00 A3041 RMK A01 T00641003  RH  062%=      5-min Rain = 0
KWT1 150138Z 02001KT 06/M00 A3041 RMK A01 T00631002  RH  063%=      5-min Rain = 0
KWT1 150139Z 02001KT 06/M00 A3041 RMK A01 T00631002  RH  063%=      5-min Rain = 0
KWT1 150140Z 03001KT 06/M00 A3041 RMK A01 T00631002  RH  063%=      5-min Rain = 0
KWT1 150141Z 02001KT 06/M00 A3041 RMK A01 T00631003  RH  063%=      5-min Rain = 0
KWT1 150142Z 02001KT 06/M00 A3041 RMK A01 T00631002  RH  063%=      5-min Rain = 0
KWT1 150143Z 02001KT 06/M00 A3041 RMK A01 T00631002  RH  063%=      5-min Rain = 0
KWT1 150144Z 03002KT 06/M00 A3041 RMK A01 T00631002  RH  063%=      5-min Rain = 0
KWT1 150145Z 03001KT 06/M00 A3041 RMK A01 T00631002  RH  063%=      5-min Rain = 0
KWT1 150146Z 03001KT 06/M00 A3041 RMK A01 T00631002  RH  063%=      5-min Rain = 0
KWT1 150147Z 04001KT 06/M00 A3041 RMK A01 T00641002  RH  063%=      5-min Rain = 0
KWT1 150148Z 03001KT 06/M00 A3041 RMK A01 T00641001  RH  063%=      5-min Rain = 0
KWT1 150149Z 02001KT 06/M00 A3041 RMK A01 T00641002  RH  063%=      5-min Rain = 0
KWT1 150150Z 03001KT 06/M00 A3041 RMK A01 T00641002  RH  063%=      5-min Rain = 0
KWT1 150151Z 03001KT 06/M00 A3041 RMK A01 T00641002  RH  063%=      5-min Rain = 0
KWT1 150152Z 04002KT 06/M00 A3041 RMK A01 T00641002  RH  063%=      5-min Rain = 0
KWT1 150153Z 03002KT 06/M00 A3041 RMK A01 T00641002  RH  063%=      5-min Rain = 0
KWT1 150154Z 03002KT 06/M00 A3041 RMK A01 T00641002  RH  063%=      5-min Rain = 0
KWT1 150155Z 03002KT 06/M00 A3041 RMK A01 T00641002  RH  063%=      5-min Rain = 0
KWT1 150156Z 02001KT 06/M00 A3041 RMK A01 T00641002  RH  063%=      5-min Rain = 0
KWT1 150157Z 01001KT 07/M00 A3041 RMK A01 T00651001  RH  063%=      5-min Rain = 0
KWT1 150158Z 01001KT 07/M00 A3041 RMK A01 T00651001  RH  062%=      5-min Rain = 0
KWT1 150159Z 02002KT 07/M00 A3041 RMK A01 T00651002  RH  062%=      5-min Rain = 0
KWT1 150200Z 01002KT 07/M00 A3041 RMK A01 T00651002  RH  062%=      5-min Rain = 0
KWT1 150201Z 00002KT 07/M00 A3041 RMK A01 T00651002  RH  062%=      5-min Rain = 0
KWT1 150202Z 00002KT 07/M00 A3041 RMK A01 T00651003  RH  062%=      5-min Rain = 0
KWT1 150203Z 00002KT 07/M00 A3041 RMK A01 T00651003  RH  062%=      5-min Rain = 0
KWT1 150204Z 36002KT 06/M00 A3042 RMK A01 T00641003  RH  062%=      5-min Rain = 0
KWT1 150205Z 00002KT 06/M00 A3042 RMK A01 T00641003  RH  062%=      5-min Rain = 0
KWT1 150206Z 36002KT 06/M00 A3042 RMK A01 T00631003  RH  063%=      5-min Rain = 0
KWT1 150207Z 00002KT 06/M00 A3042 RMK A01 T00631003  RH  063%=      5-min Rain = 0
KWT1 150208Z 00002KT 06/M00 A3042 RMK A01 T00641003  RH  063%=      5-min Rain = 0
KWT1 150209Z 36003KT 06/M00 A3042 RMK A01 T00631003  RH  063%=      5-min Rain = 0
KWT1 150210Z 36002KT 06/M00 A3042 RMK A01 T00631003  RH  063%=      5-min Rain = 0
KWT1 150211Z 36002KT 06/M00 A3042 RMK A01 T00621003  RH  063%=      5-min Rain = 0
KWT1 150212Z 36002KT 06/M00 A3042 RMK A01 T00621003  RH  063%=      5-min Rain = 0
KWT1 150213Z 00002KT 06/M00 A3042 RMK A01 T00611003  RH  063%=      5-min Rain = 0
KWT1 150214Z 00002KT 06/M00 A3042 RMK A01 T00611003  RH  063%=      5-min Rain = 0
KWT1 150215Z 36002KT 06/M00 A3042 RMK A01 T00611003  RH  063%=      5-min Rain = 0
KWT1 150216Z 00002KT 06/M00 A3042 RMK A01 T00611003  RH  063%=      5-min Rain = 0
KWT1 150217Z 00002KT 06/M00 A3042 RMK A01 T00621003  RH  063%=      5-min Rain = 0
KWT1 150218Z 36002KT 06/M00 A3042 RMK A01 T00621003  RH  063%=      5-min Rain = 0
KWT1 150219Z 35002KT 06/M00 A3042 RMK A01 T00621003  RH  063%=      5-min Rain = 0
KWT1 150220Z 35002KT 06/M00 A3042 RMK A01 T00621003  RH  063%=      5-min Rain = 0
KWT1 150221Z 35002KT 06/M00 A3042 RMK A01 T00621003  RH  063%=      5-min Rain = 0
KWT1 150222Z 35002KT 06/M00 A3042 RMK A01 T00621003  RH  063%=      5-min Rain = 0
KWT1 150223Z 35003KT 06/M00 A3042 RMK A01 T00621003  RH  063%=      5-min Rain = 0
KWT1 150224Z 35003KT 06/M00 A3042 RMK A01 T00611003  RH  063%=      5-min Rain = 0
KWT1 150225Z 35003KT 06/M00 A3042 RMK A01 T00611003  RH  063%=      5-min Rain = 0
KWT1 150226Z 36003KT 06/M00 A3042 RMK A01 T00601004  RH  063%=      5-min Rain = 0
KWT1 150227Z 00003KT 06/M00 A3042 RMK A01 T00591004  RH  064%=      5-min Rain = 0
KWT1 150228Z 36003KT 06/M00 A3042 RMK A01 T00591004  RH  064%=      5-min Rain = 0
KWT1 150229Z 00003KT 06/M00 A3042 RMK A01 T00591004  RH  064%=      5-min Rain = 0
KWT1 150230Z 00003KT 06/M00 A3042 RMK A01 T00591004  RH  064%=      5-min Rain = 0
KWT1 150231Z 36003KT 06/M00 A3042 RMK A01 T00581004  RH  064%=      5-min Rain = 0
KWT1 150232Z 36003KT 06/M00 A3042 RMK A01 T00581004  RH  064%=      5-min Rain = 0
KWT1 150233Z 36003KT 06/M00 A3042 RMK A01 T00581004  RH  064%=      5-min Rain = 0
KWT1 150234Z 01003KT 06/M00 A3042 RMK A01 T00581004  RH  064%=      5-min Rain = 0
KWT1 150235Z 01003KT 06/M00 A3042 RMK A01 T00571004  RH  065%=      5-min Rain = 0
KWT1 150236Z 01003KT 06/M00 A3042 RMK A01 T00571004  RH  065%=      5-min Rain = 0
KWT1 150237Z 01003KT 06/M01 A3042 RMK A01 T00561005  RH  065%=      5-min Rain = 0
KWT1 150238Z 01003KT 06/M00 A3042 RMK A01 T00561004  RH  065%=      5-min Rain = 0
KWT1 150239Z 00002KT 06/M00 A3042 RMK A01 T00561004  RH  065%=      5-min Rain = 0
KWT1 150240Z 00002KT 06/M00 A3042 RMK A01 T00561004  RH  065%=      5-min Rain = 0
KWT1 150241Z 00002KT 06/M00 A3042 RMK A01 T00561004  RH  065%=      5-min Rain = 0
KWT1 150242Z 00002KT 06/M00 A3042 RMK A01 T00561004  RH  065%=      5-min Rain = 0
KWT1 150243Z 36002KT 06/M00 A3042 RMK A01 T00561004  RH  065%=      5-min Rain = 0
KWT1 150244Z 36002KT 06/M00 A3042 RMK A01 T00561004  RH  065%=      5-min Rain = 0
KWT1 150245Z 00002KT 06/M00 A3042 RMK A01 T00561004  RH  065%=      5-min Rain = 0
KWT1 150246Z 00002KT 06/M00 A3043 RMK A01 T00571004  RH  065%=      5-min Rain = 0
KWT1 150247Z 00002KT 06/M00 A3043 RMK A01 T00571004  RH  065%=      5-min Rain = 0
KWT1 150248Z 00002KT 06/M00 A3043 RMK A01 T00571004  RH  065%=      5-min Rain = 0
KWT1 150249Z 36002KT 06/M00 A3043 RMK A01 T00571004  RH  065%=      5-min Rain = 0
KWT1 150250Z 35002KT 06/M00 A3043 RMK A01 T00561004  RH  065%=      5-min Rain = 0
KWT1 150251Z 35002KT 06/M01 A3043 RMK A01 T00561005  RH  065%=      5-min Rain = 0
KWT1 150252Z 34002KT 06/M00 A3043 RMK A01 T00561004  RH  065%=      5-min Rain = 0
KWT1 150253Z 34002KT 06/M00 A3043 RMK A01 T00561004  RH  065%=      5-min Rain = 0
KWT1 150254Z 33002KT 06/M00 A3043 RMK A01 T00561004  RH  065%=      5-min Rain = 0
KWT1 150255Z 33002KT 06/M00 A3043 RMK A01 T00561004  RH  065%=      5-min Rain = 0
KWT1 150256Z 33002KT 06/M01 A3043 RMK A01 T00551005  RH  065%=      5-min Rain = 0
KWT1 150257Z 33002KT 06/M01 A3043 RMK A01 T00551005  RH  065%=      5-min Rain = 0
KWT1 150258Z 32002KT 05/M01 A3043 RMK A01 T00541005  RH  066%=      5-min Rain = 0
KWT1 150259Z 32001KT 06/M00 A3043 RMK A01 T00551004  RH  066%=      5-min Rain = 0
KWT1 150300Z 31001KT 06/M00 A3043 RMK A01 T00551004  RH  066%=      5-min Rain = 0
KWT1 150301Z 31001KT 05/M01 A3043 RMK A01 T00541005  RH  066%=      5-min Rain = 0
KWT1 150302Z 31001KT 05/M01 A3043 RMK A01 T00541005  RH  066%=      5-min Rain = 0
KWT1 150303Z 31001KT 05/M01 A3043 RMK A01 T00541005  RH  066%=      5-min Rain = 0
KWT1 150304Z 31001KT 05/M01 A3043 RMK A01 T00531005  RH  066%=      5-min Rain = 0
KWT1 150305Z 31001KT 05/M00 A3043 RMK A01 T00541004  RH  066%=      5-min Rain = 0
KWT1 150306Z 32002KT 05/M00 A3043 RMK A01 T00541004  RH  066%=      5-min Rain = 0
KWT1 150307Z 32002KT 05/M00 A3043 RMK A01 T00541004  RH  066%=      5-min Rain = 0
KWT1 150308Z 32002KT 05/M00 A3043 RMK A01 T00541004  RH  066%=      5-min Rain = 0
KWT1 150309Z 32002KT 05/M00 A3043 RMK A01 T00541004  RH  066%=      5-min Rain = 0
KWT1 150310Z 32002KT 05/M00 A3043 RMK A01 T00541004  RH  066%=      5-min Rain = 0
KWT1 150311Z 32002KT 05/M00 A3043 RMK A01 T00541004  RH  066%=      5-min Rain = 0
KWT1 150312Z 33002KT 05/M00 A3043 RMK A01 T00541004  RH  066%=      5-min Rain = 0
KWT1 150313Z 33001KT 05/M00 A3043 RMK A01 T00541003  RH  066%=      5-min Rain = 0
KWT1 150314Z 33001KT 05/M00 A3043 RMK A01 T00541004  RH  066%=      5-min Rain = 0
KWT1 150315Z 34002KT 05/M00 A3043 RMK A01 T00541004  RH  066%=      5-min Rain = 0
KWT1 150316Z 34002KT 06/M00 A3043 RMK A01 T00551004  RH  066%=      5-min Rain = 0
KWT1 150317Z 33001KT 05/M00 A3043 RMK A01 T00541004  RH  066%=      5-min Rain = 0
KWT1 150318Z 33001KT 06/M00 A3043 RMK A01 T00551004  RH  066%=      5-min Rain = 0
KWT1 150319Z 33001KT 05/M00 A3043 RMK A01 T00541004  RH  066%=      5-min Rain = 0
KWT1 150320Z 33002KT 05/M01 A3043 RMK A01 T00541005  RH  066%=      5-min Rain = 0
KWT1 150321Z 33002KT 05/M00 A3043 RMK A01 T00531004  RH  066%=      5-min Rain = 0
KWT1 150322Z 33002KT 05/M00 A3043 RMK A01 T00541004  RH  066%=      5-min Rain = 0
KWT1 150323Z 32002KT 05/M00 A3043 RMK A01 T00541004  RH  066%=      5-min Rain = 0
KWT1 150324Z 32002KT 05/M00 A3043 RMK A01 T00541004  RH  066%=      5-min Rain = 0
KWT1 150325Z 32002KT 05/M01 A3043 RMK A01 T00531005  RH  066%=      5-min Rain = 0
KWT1 150326Z 32002KT 05/M01 A3043 RMK A01 T00521005  RH  067%=      5-min Rain = 0
KWT1 150327Z 32002KT 05/M01 A3043 RMK A01 T00511005  RH  067%=      5-min Rain = 0
KWT1 150328Z 32002KT 05/M01 A3043 RMK A01 T00501005  RH  067%=      5-min Rain = 0
KWT1 150329Z 31003KT 05/M01 A3043 RMK A01 T00501005  RH  068%=      5-min Rain = 0
KWT1 150330Z 32003KT 05/M01 A3043 RMK A01 T00491005  RH  068%=      5-min Rain = 0
KWT1 150331Z 32003KT 05/M01 A3043 RMK A01 T00491005  RH  068%=      5-min Rain = 0
KWT1 150332Z 32003KT 05/M01 A3043 RMK A01 T00491005  RH  068%=      5-min Rain = 0
KWT1 150333Z 33003KT 05/M01 A3043 RMK A01 T00481005  RH  068%=      5-min Rain = 0
KWT1 150334Z 33003KT 05/M01 A3044 RMK A01 T00471005  RH  069%=      5-min Rain = 0
KWT1 150335Z 33003KT 05/M01 A3044 RMK A01 T00471005  RH  069%=      5-min Rain = 0
KWT1 150336Z 33003KT 05/M01 A3044 RMK A01 T00471005  RH  069%=      5-min Rain = 0
KWT1 150337Z 33003KT 05/M01 A3044 RMK A01 T00471005  RH  069%=      5-min Rain = 0
KWT1 150338Z 33003KT 05/M01 A3044 RMK A01 T00471005  RH  069%=      5-min Rain = 0
KWT1 150339Z 33003KT 05/M00 A3044 RMK A01 T00471004  RH  069%=      5-min Rain = 0
KWT1 150340Z 33003KT 05/M01 A3044 RMK A01 T00471005  RH  069%=      5-min Rain = 0
KWT1 150341Z 33003KT 05/M01 A3044 RMK A01 T00471005  RH  069%=      5-min Rain = 0
KWT1 150342Z 33003KT 05/M01 A3044 RMK A01 T00461005  RH  069%=      5-min Rain = 0
KWT1 150343Z 33003KT 05/M01 A3044 RMK A01 T00461005  RH  070%=      5-min Rain = 0
KWT1 150344Z 33003KT 05/M01 A3044 RMK A01 T00451005  RH  070%=      5-min Rain = 0
KWT1 150345Z 33003KT 05/M01 A3044 RMK A01 T00451005  RH  070%=      5-min Rain = 0
KWT1 150346Z 33003KT 05/M01 A3044 RMK A01 T00451005  RH  070%=      5-min Rain = 0
KWT1 150347Z 33003KT 05/M01 A3044 RMK A01 T00451005  RH  070%=      5-min Rain = 0
KWT1 150348Z 33003KT 05/M01 A3044 RMK A01 T00451005  RH  070%=      5-min Rain = 0
KWT1 150349Z 33003KT 05/M00 A3044 RMK A01 T00451004  RH  070%=      5-min Rain = 0
KWT1 150350Z 33003KT 05/M01 A3044 RMK A01 T00451005  RH  070%=      5-min Rain = 0
KWT1 150351Z 33003KT 05/M00 A3044 RMK A01 T00461004  RH  070%=      5-min Rain = 0
KWT1 150352Z 33003KT 05/M01 A3044 RMK A01 T00461005  RH  070%=      5-min Rain = 0
KWT1 150353Z 32003KT 05/M01 A3044 RMK A01 T00461005  RH  070%=      5-min Rain = 0
KWT1 150354Z 32003KT 05/M01 A3044 RMK A01 T00461005  RH  070%=      5-min Rain = 0
KWT1 150355Z 32003KT 05/M01 A3044 RMK A01 T00461005  RH  070%=      5-min Rain = 0
KWT1 150356Z 32003KT 05/M01 A3044 RMK A01 T00461005  RH  070%=      5-min Rain = 0
KWT1 150357Z 32003KT 05/M00 A3044 RMK A01 T00461004  RH  070%=      5-min Rain = 0
KWT1 150358Z 32003KT 05/M00 A3044 RMK A01 T00451004  RH  070%=      5-min Rain = 0
KWT1 150359Z 32003KT 05/M00 A3044 RMK A01 T00451004  RH  070%=      5-min Rain = 0
KWT1 150400Z 32003KT 05/M00 A3044 RMK A01 T00451004  RH  071%=      5-min Rain = 0
KWT1 150401Z 32003KT 05/M00 A3044 RMK A01 T00451004  RH  070%=      5-min Rain = 0
KWT1 150402Z 32003KT 05/M00 A3044 RMK A01 T00461003  RH  070%=      5-min Rain = 0
KWT1 150403Z 33003KT 05/M00 A3044 RMK A01 T00471003  RH  070%=      5-min Rain = 0
KWT1 150404Z 33003KT 05/M00 A3044 RMK A01 T00471004  RH  070%=      5-min Rain = 0
KWT1 150405Z 33003KT 05/M00 A3044 RMK A01 T00471004  RH  069%=      5-min Rain = 0
KWT1 150406Z 33003KT 05/M00 A3044 RMK A01 T00481004  RH  069%=      5-min Rain = 0
KWT1 150407Z 32003KT 05/M00 A3044 RMK A01 T00481004  RH  069%=      5-min Rain = 0
KWT1 150408Z 32003KT 05/M00 A3044 RMK A01 T00491004  RH  069%=      5-min Rain = 0
KWT1 150409Z 32003KT 05/M00 A3044 RMK A01 T00481004  RH  069%=      5-min Rain = 0
KWT1 150410Z 32003KT 05/M00 A3044 RMK A01 T00491004  RH  069%=      5-min Rain = 0
KWT1 150411Z 32003KT 05/M00 A3044 RMK A01 T00491004  RH  069%=      5-min Rain = 0
KWT1 150412Z 32003KT 05/M01 A3044 RMK A01 T00481005  RH  069%=      5-min Rain = 0
KWT1 150413Z 32003KT 05/M01 A3044 RMK A01 T00481005  RH  069%=      5-min Rain = 0
KWT1 150414Z 32003KT 05/M01 A3044 RMK A01 T00481005  RH  069%=      5-min Rain = 0
KWT1 150415Z 32003KT 05/M00 A3044 RMK A01 T00481004  RH  069%=      5-min Rain = 0
KWT1 150416Z 32003KT 05/M01 A3044 RMK A01 T00481005  RH  069%=      5-min Rain = 0
KWT1 150417Z 33003KT 05/M01 A3044 RMK A01 T00481005  RH  069%=      5-min Rain = 0
KWT1 150418Z 33003KT 05/M01 A3044 RMK A01 T00481005  RH  069%=      5-min Rain = 0
KWT1 150419Z 33003KT 05/M01 A3044 RMK A01 T00481005  RH  068%=      5-min Rain = 0
KWT1 150420Z 33003KT 05/M01 A3044 RMK A01 T00491005  RH  068%=      5-min Rain = 0
KWT1 150421Z 33003KT 05/M01 A3044 RMK A01 T00491005  RH  068%=      5-min Rain = 0
KWT1 150422Z 33004KT 05/M01 A3044 RMK A01 T00491005  RH  068%=      5-min Rain = 0
KWT1 150423Z 33004KT 05/M01 A3044 RMK A01 T00491005  RH  068%=      5-min Rain = 0
KWT1 150424Z 33003KT 05/M01 A3044 RMK A01 T00501005  RH  068%=      5-min Rain = 0
KWT1 150425Z 33003KT 05/M01 A3044 RMK A01 T00501005  RH  068%=      5-min Rain = 0
KWT1 150426Z 33003KT 05/M01 A3044 RMK A01 T00501005  RH  068%=      5-min Rain = 0
KWT1 150427Z 33003KT 05/M01 A3044 RMK A01 T00501005  RH  068%=      5-min Rain = 0
KWT1 150428Z 32003KT 05/M01 A3044 RMK A01 T00491005  RH  068%=      5-min Rain = 0
KWT1 150429Z 32003KT 05/M01 A3044 RMK A01 T00491006  RH  068%=      5-min Rain = 0
KWT1 150430Z 32003KT 05/M01 A3044 RMK A01 T00491006  RH  067%=      5-min Rain = 0
KWT1 150431Z 32003KT 05/M01 A3044 RMK A01 T00491006  RH  067%=      5-min Rain = 0
KWT1 150432Z 33003KT 05/M01 A3044 RMK A01 T00491006  RH  067%=      5-min Rain = 0
KWT1 150433Z 33003KT 05/M01 A3044 RMK A01 T00491006  RH  067%=      5-min Rain = 0
KWT1 150434Z 33003KT 05/M01 A3044 RMK A01 T00491006  RH  067%=      5-min Rain = 0
KWT1 150435Z 33003KT 05/M01 A3044 RMK A01 T00491006  RH  067%=      5-min Rain = 0
KWT1 150436Z 33003KT 05/M01 A3044 RMK A01 T00491006  RH  067%=      5-min Rain = 0
KWT1 150437Z 33003KT 05/M01 A3044 RMK A01 T00501005  RH  067%=      5-min Rain = 0
KWT1 150438Z 33003KT 05/M01 A3044 RMK A01 T00501005  RH  067%=      5-min Rain = 0
KWT1 150439Z 33003KT 05/M01 A3044 RMK A01 T00501006  RH  067%=      5-min Rain = 0
KWT1 150440Z 33003KT 05/M01 A3044 RMK A01 T00501006  RH  067%=      5-min Rain = 0
KWT1 150441Z 34003KT 05/M01 A3044 RMK A01 T00501006  RH  067%=      5-min Rain = 0
KWT1 150442Z 34003KT 05/M01 A3044 RMK A01 T00501006  RH  067%=      5-min Rain = 0
KWT1 150443Z 34002KT 05/M01 A3044 RMK A01 T00501006  RH  067%=      5-min Rain = 0
KWT1 150444Z 34002KT 05/M01 A3044 RMK A01 T00501006  RH  067%=      5-min Rain = 0
KWT1 150445Z 34002KT 05/M01 A3044 RMK A01 T00501006  RH  067%=      5-min Rain = 0
KWT1 150446Z 34002KT 05/M01 A3044 RMK A01 T00491006  RH  068%=      5-min Rain = 0
KWT1 150447Z 34002KT 05/M01 A3044 RMK A01 T00491006  RH  068%=      5-min Rain = 0
KWT1 150448Z 34002KT 05/M01 A3044 RMK A01 T00481007  RH  068%=      5-min Rain = 0
KWT1 150449Z 34002KT 05/M01 A3044 RMK A01 T00471006  RH  068%=      5-min Rain = 0
KWT1 150450Z 34002KT 05/M01 A3044 RMK A01 T00471006  RH  068%=      5-min Rain = 0
KWT1 150451Z 34002KT 05/M01 A3044 RMK A01 T00471006  RH  068%=      5-min Rain = 0
KWT1 150452Z 34002KT 05/M01 A3044 RMK A01 T00471006  RH  069%=      5-min Rain = 0
KWT1 150453Z 34002KT 05/M01 A3044 RMK A01 T00461007  RH  069%=      5-min Rain = 0
KWT1 150454Z 33002KT 05/M01 A3044 RMK A01 T00461006  RH  069%=      5-min Rain = 0
KWT1 150455Z 33002KT 05/M01 A3044 RMK A01 T00461006  RH  069%=      5-min Rain = 0
KWT1 150456Z 33002KT 05/M01 A3044 RMK A01 T00451007  RH  069%=      5-min Rain = 0
KWT1 150457Z 33002KT 05/M01 A3044 RMK A01 T00451007  RH  069%=      5-min Rain = 0
KWT1 150458Z 33002KT 05/M01 A3044 RMK A01 T00451007  RH  069%=      5-min Rain = 0
KWT1 150459Z 32002KT 04/M01 A3044 RMK A01 T00441007  RH  069%=      5-min Rain = 0
KWT1 150500Z 32002KT 04/M01 A3044 RMK A01 T00431007  RH  070%=      5-min Rain = 0
KWT1 150501Z 32002KT 04/M01 A3044 RMK A01 T00441006  RH  070%=      5-min Rain = 0
KWT1 150502Z 31002KT 04/M01 A3044 RMK A01 T00441006  RH  070%=      5-min Rain = 0
KWT1 150503Z 31002KT 04/M01 A3044 RMK A01 T00441006  RH  070%=      5-min Rain = 0
KWT1 150504Z 31001KT 04/M01 A3044 RMK A01 T00441006  RH  070%=      5-min Rain = 0
KWT1 150505Z 31001KT 04/M01 A3044 RMK A01 T00441005  RH  070%=      5-min Rain = 0
KWT1 150506Z 32001KT 05/M01 A3044 RMK A01 T00451005  RH  070%=      5-min Rain = 0
KWT1 150507Z 32001KT 05/M01 A3044 RMK A01 T00461005  RH  070%=      5-min Rain = 0
KWT1 150508Z 32001KT 05/M01 A3044 RMK A01 T00461005  RH  069%=      5-min Rain = 0
KWT1 150509Z 32001KT 05/M01 A3044 RMK A01 T00461005  RH  069%=      5-min Rain = 0
KWT1 150510Z 33001KT 05/M01 A3044 RMK A01 T00461005  RH  069%=      5-min Rain = 0
KWT1 150511Z 33001KT 05/M01 A3044 RMK A01 T00461005  RH  069%=      5-min Rain = 0
KWT1 150512Z 33001KT 05/M01 A3044 RMK A01 T00461006  RH  069%=      5-min Rain = 0
KWT1 150513Z 33002KT 05/M01 A3044 RMK A01 T00461005  RH  069%=      5-min Rain = 0
KWT1 150514Z 33002KT 05/M01 A3044 RMK A01 T00461005  RH  069%=      5-min Rain = 0
KWT1 150515Z 33002KT 05/M01 A3044 RMK A01 T00461006  RH  069%=      5-min Rain = 0
KWT1 150516Z 33002KT 05/M01 A3044 RMK A01 T00461006  RH  069%=      5-min Rain = 0
KWT1 150517Z 32002KT 05/M01 A3044 RMK A01 T00451006  RH  069%=      5-min Rain = 0
KWT1 150518Z 32002KT 05/M01 A3044 RMK A01 T00451006  RH  069%=      5-min Rain = 0
KWT1 150519Z 32002KT 04/M01 A3044 RMK A01 T00441007  RH  069%=      5-min Rain = 0
KWT1 150520Z 32002KT 04/M01 A3044 RMK A01 T00431007  RH  070%=      5-min Rain = 0
KWT1 150521Z 32002KT 04/M01 A3044 RMK A01 T00431007  RH  070%=      5-min Rain = 0
KWT1 150522Z 32001KT 04/M01 A3044 RMK A01 T00431006  RH  070%=      5-min Rain = 0
KWT1 150523Z 32002KT 04/M01 A3044 RMK A01 T00431006  RH  070%=      5-min Rain = 0
KWT1 150524Z 32002KT 04/M01 A3044 RMK A01 T00431006  RH  070%=      5-min Rain = 0
KWT1 150525Z 32002KT 04/M01 A3044 RMK A01 T00441006  RH  070%=      5-min Rain = 0
KWT1 150526Z 32002KT 04/M01 A3044 RMK A01 T00441006  RH  070%=      5-min Rain = 0
KWT1 150527Z 32002KT 04/M01 A3044 RMK A01 T00441006  RH  070%=      5-min Rain = 0
KWT1 150528Z 32002KT 04/M01 A3044 RMK A01 T00441006  RH  070%=      5-min Rain = 0
KWT1 150529Z 32001KT 04/M01 A3044 RMK A01 T00441006  RH  070%=      5-min Rain = 0
KWT1 150530Z 32001KT 04/M01 A3044 RMK A01 T00441006  RH  070%=      5-min Rain = 0
KWT1 150531Z 32001KT 04/M01 A3044 RMK A01 T00441006  RH  070%=      5-min Rain = 0
KWT1 150532Z 32001KT 04/M01 A3044 RMK A01 T00441007  RH  070%=      5-min Rain = 0
KWT1 150533Z 33001KT 04/M01 A3044 RMK A01 T00441006  RH  070%=      5-min Rain = 0
KWT1 150534Z 33001KT 04/M01 A3044 RMK A01 T00441006  RH  070%=      5-min Rain = 0
KWT1 150535Z 33002KT 04/M01 A3044 RMK A01 T00431006  RH  070%=      5-min Rain = 0
KWT1 150536Z 33002KT 04/M01 A3044 RMK A01 T00441006  RH  070%=      5-min Rain = 0
KWT1 150537Z 33002KT 04/M01 A3044 RMK A01 T00431006  RH  070%=      5-min Rain = 0
KWT1 150538Z 33002KT 04/M01 A3044 RMK A01 T00431006  RH  070%=      5-min Rain = 0
KWT1 150539Z 33002KT 04/M01 A3044 RMK A01 T00431007  RH  070%=      5-min Rain = 0
KWT1 150540Z 33002KT 04/M01 A3044 RMK A01 T00421007  RH  071%=      5-min Rain = 0
KWT1 150541Z 33002KT 04/M01 A3044 RMK A01 T00421007  RH  071%=      5-min Rain = 0
KWT1 150542Z 33002KT 04/M01 A3044 RMK A01 T00421007  RH  071%=      5-min Rain = 0
KWT1 150543Z 33002KT 04/M01 A3044 RMK A01 T00411007  RH  071%=      5-min Rain = 0
KWT1 150544Z 33002KT 04/M01 A3044 RMK A01 T00411007  RH  071%=      5-min Rain = 0
KWT1 150545Z 33002KT 04/M01 A3044 RMK A01 T00411007  RH  071%=      5-min Rain = 0
KWT1 150546Z 33002KT 04/M01 A3044 RMK A01 T00411007  RH  071%=      5-min Rain = 0
KWT1 150547Z 33002KT 04/M01 A3044 RMK A01 T00411007  RH  071%=      5-min Rain = 0
KWT1 150548Z 33002KT 04/M01 A3044 RMK A01 T00411007  RH  071%=      5-min Rain = 0
KWT1 150549Z 33002KT 04/M01 A3044 RMK A01 T00421006  RH  071%=      5-min Rain = 0
KWT1 150550Z 33002KT 04/M01 A3044 RMK A01 T00431006  RH  071%=      5-min Rain = 0
KWT1 150551Z 33002KT 04/M01 A3044 RMK A01 T00431006  RH  070%=      5-min Rain = 0
KWT1 150552Z 33002KT 04/M01 A3044 RMK A01 T00431006  RH  070%=      5-min Rain = 0
KWT1 150553Z 34002KT 04/M01 A3044 RMK A01 T00431006  RH  070%=      5-min Rain = 0
KWT1 150554Z 34002KT 04/M01 A3044 RMK A01 T00431007  RH  070%=      5-min Rain = 0
KWT1 150555Z 34002KT 04/M01 A3044 RMK A01 T00441006  RH  070%=      5-min Rain = 0
KWT1 150556Z 34002KT 04/M01 A3044 RMK A01 T00431007  RH  070%=      5-min Rain = 0
KWT1 150557Z 34002KT 04/M01 A3044 RMK A01 T00431007  RH  070%=      5-min Rain = 0
KWT1 150558Z 34002KT 04/M01 A3044 RMK A01 T00431006  RH  070%=      5-min Rain = 0
KWT1 150559Z 34002KT 04/M01 A3044 RMK A01 T00431007  RH  070%=      5-min Rain = 0

Page generated in 0.0707 seconds.